Time,TemperatureF,DewpointF,PressureIn,WindDirection,WindDirectionDegrees,WindSpeedMPH,WindSpeedGustMPH,Humidity,HourlyPrecipIn,Conditions,Clouds,dailyrainin,SolarRadiationWatts/m^2,SoftwareType,DateUTC
2013-08-06 00:00:00,59.6,51.7,29.98,WNW,296,0.0,0.0,75,0.00,,CLR,0.00,0.00,VWS V14.01,2013-08-06 04:00:00,
2013-08-06 00:01:00,59.5,51.6,29.98,WNW,296,0.0,0.0,75,0.00,,CLR,0.00,0.00,VWS V14.01,2013-08-06 04:01:00,
2013-08-06 00:05:00,59.6,52.0,29.98,WNW,296,0.0,0.0,76,0.00,,CLR,0.00,0.00,VWS V14.01,2013-08-06 04:05:00,
2013-08-06 00:06:00,59.6,52.0,29.98,WNW,296,0.0,0.0,76,0.00,,CLR,0.00,0.00,VWS V14.01,2013-08-06 04:06:00,
2013-08-06 00:10:00,59.5,51.9,29.98,WNW,296,0.0,0.0,76,0.00,,CLR,0.00,0.00,VWS V14.01,2013-08-06 04:10:00,
2013-08-06 00:11:00,59.5,51.9,29.98,WNW,296,0.0,0.0,76,0.00,,CLR,0.00,0.00,VWS V14.01,2013-08-06 04:11:00,
2013-08-06 00:15:00,59.5,51.9,29.98,WNW,296,0.0,0.0,76,0.00,,CLR,0.00,0.00,VWS V14.01,2013-08-06 04:15:00,
2013-08-06 00:16:00,59.5,51.9,29.98,WNW,296,0.0,0.0,76,0.00,,CLR,0.00,0.00,VWS V14.01,2013-08-06 04:16:00,
2013-08-06 00:20:00,59.3,52.1,29.98,WNW,296,0.0,0.0,77,0.00,,CLR,0.00,0.00,VWS V14.01,2013-08-06 04:20:00,
2013-08-06 00:21:00,59.3,52.1,29.98,WNW,296,0.0,0.0,77,0.00,,CLR,0.00,0.00,VWS V14.01,2013-08-06 04:21:00,
2013-08-06 00:25:00,59.2,52.0,29.98,WNW,292,0.0,0.0,77,0.00,,CLR,0.00,0.00,VWS V14.01,2013-08-06 04:25:00,
2013-08-06 00:26:00,59.2,52.0,29.98,WNW,296,0.0,0.0,77,0.00,,CLR,0.00,0.00,VWS V14.01,2013-08-06 04:26:00,
2013-08-06 00:30:00,59.0,52.2,29.98,WNW,296,0.0,0.0,78,0.00,,CLR,0.00,0.00,VWS V14.01,2013-08-06 04:30:00,
2013-08-06 00:31:00,59.0,52.2,29.98,WNW,296,0.0,0.0,78,0.00,,CLR,0.00,0.00,VWS V14.01,2013-08-06 04:31:00,
2013-08-06 00:35:00,58.9,52.1,29.98,WNW,296,0.0,0.0,78,0.00,,CLR,0.00,0.00,VWS V14.01,2013-08-06 04:35:00,
2013-08-06 00:36:00,58.7,51.9,29.98,WNW,296,0.0,0.0,78,0.00,,CLR,0.00,0.00,VWS V14.01,2013-08-06 04:36:00,
2013-08-06 00:40:00,58.7,51.9,29.98,WNW,296,0.0,0.0,78,0.00,,CLR,0.00,0.00,VWS V14.01,2013-08-06 04:40:00,
2013-08-06 00:41:00,58.6,51.8,29.98,WNW,296,0.0,0.0,78,0.00,,CLR,0.00,0.00,VWS V14.01,2013-08-06 04:41:00,
2013-08-06 00:45:00,58.4,51.6,29.99,WNW,296,0.0,0.0,78,0.00,,CLR,0.00,0.00,VWS V14.01,2013-08-06 04:45:00,
2013-08-06 00:46:00,58.4,51.6,29.99,WNW,296,0.0,0.0,78,0.00,,CLR,0.00,0.00,VWS V14.01,2013-08-06 04:46:00,
2013-08-06 00:50:00,58.3,51.8,29.99,WNW,292,0.0,0.0,79,0.00,,CLR,0.00,0.00,VWS V14.01,2013-08-06 04:50:00,
2013-08-06 00:51:00,58.3,51.8,29.99,WNW,296,0.0,0.0,79,0.00,,CLR,0.00,0.00,VWS V14.01,2013-08-06 04:51:00,
2013-08-06 00:55:00,58.3,51.8,29.99,WNW,296,0.0,0.0,79,0.00,,CLR,0.00,0.00,VWS V14.01,2013-08-06 04:55:00,
2013-08-06 00:56:00,58.1,51.6,29.99,WNW,296,0.0,0.0,79,0.00,,CLR,0.00,0.00,VWS V14.01,2013-08-06 04:56:00,
2013-08-06 01:00:00,58.0,51.9,29.99,WNW,296,0.0,0.0,80,0.00,,CLR,0.00,0.00,VWS V14.01,2013-08-06 05:00:00,
2013-08-06 01:01:00,58.0,51.9,29.99,WNW,296,0.0,0.0,80,0.00,,CLR,0.00,0.00,VWS V14.01,2013-08-06 05:01:00,
2013-08-06 01:05:00,57.8,51.7,29.99,WNW,296,0.0,0.0,80,0.00,,CLR,0.00,0.00,VWS V14.01,2013-08-06 05:05:00,
2013-08-06 01:06:00,57.8,52.0,29.99,WNW,296,0.0,0.0,81,0.00,,CLR,0.00,0.00,VWS V14.01,2013-08-06 05:06:00,
2013-08-06 01:10:00,57.8,52.0,29.99,WNW,296,0.0,0.0,81,0.00,,CLR,0.00,0.00,VWS V14.01,2013-08-06 05:10:00,
2013-08-06 01:11:00,57.8,52.0,29.99,WNW,296,0.0,0.0,81,0.00,,CLR,0.00,0.00,VWS V14.01,2013-08-06 05:11:00,
2013-08-06 01:15:00,57.6,52.2,29.99,WNW,292,0.0,0.0,82,0.00,,CLR,0.00,0.00,VWS V14.01,2013-08-06 05:15:00,
2013-08-06 01:16:00,57.6,52.2,29.99,WNW,296,0.0,0.0,82,0.00,,CLR,0.00,0.00,VWS V14.01,2013-08-06 05:16:00,
2013-08-06 01:20:00,57.5,52.1,29.99,WNW,296,0.0,0.0,82,0.00,,CLR,0.00,0.00,VWS V14.01,2013-08-06 05:20:00,
2013-08-06 01:21:00,57.3,51.9,29.99,WNW,296,0.0,0.0,82,0.00,,CLR,0.00,0.00,VWS V14.01,2013-08-06 05:21:00,
2013-08-06 01:25:00,57.3,52.2,29.99,WNW,296,0.0,0.0,83,0.00,,CLR,0.00,0.00,VWS V14.01,2013-08-06 05:25:00,
2013-08-06 01:26:00,57.3,52.2,29.99,WNW,296,0.0,0.0,83,0.00,,CLR,0.00,0.00,VWS V14.01,2013-08-06 05:26:00,
2013-08-06 01:30:00,57.2,52.1,29.99,WNW,296,0.0,0.0,83,0.00,,CLR,0.00,0.00,VWS V14.01,2013-08-06 05:30:00,
2013-08-06 01:31:00,57.2,52.1,29.99,WNW,296,0.0,0.0,83,0.00,,CLR,0.00,0.00,VWS V14.01,2013-08-06 05:31:00,
2013-08-06 01:35:00,57.0,51.9,29.99,WNW,296,0.0,0.0,83,0.00,,CLR,0.00,0.00,VWS V14.01,2013-08-06 05:35:00,
2013-08-06 01:36:00,57.0,51.9,29.99,WNW,296,0.0,0.0,83,0.00,,CLR,0.00,0.00,VWS V14.01,2013-08-06 05:36:00,
2013-08-06 01:40:00,56.9,51.8,29.99,WNW,296,0.0,0.0,83,0.00,,CLR,0.00,0.00,VWS V14.01,2013-08-06 05:40:00,
2013-08-06 01:41:00,56.9,52.1,29.99,WNW,296,0.0,0.0,84,0.00,,CLR,0.00,0.00,VWS V14.01,2013-08-06 05:41:00,
2013-08-06 01:45:00,56.9,52.1,29.99,WNW,296,0.0,0.0,84,0.00,,CLR,0.00,0.00,VWS V14.01,2013-08-06 05:45:00,
2013-08-06 01:46:00,56.7,51.9,29.99,WNW,296,0.0,0.0,84,0.00,,CLR,0.00,0.00,VWS V14.01,2013-08-06 05:46:00,
2013-08-06 01:50:00,56.7,52.2,29.99,WNW,296,0.0,0.0,85,0.00,,CLR,0.00,0.00,VWS V14.01,2013-08-06 05:50:00,
2013-08-06 01:51:00,56.7,52.2,29.99,WNW,296,0.0,0.0,85,0.00,,CLR,0.00,0.00,VWS V14.01,2013-08-06 05:51:00,
2013-08-06 01:55:00,56.7,52.2,29.99,WNW,296,0.0,0.0,85,0.00,,CLR,0.00,0.00,VWS V14.01,2013-08-06 05:55:00,
2013-08-06 01:56:00,56.7,52.2,29.99,WNW,296,0.0,0.0,85,0.00,,CLR,0.00,0.00,VWS V14.01,2013-08-06 05:56:00,
2013-08-06 02:00:00,56.7,52.6,29.99,WNW,296,0.0,0.0,86,0.00,,CLR,0.00,0.00,VWS V14.01,2013-08-06 06:00:00,
2013-08-06 02:01:00,56.6,52.5,29.99,WNW,296,0.0,0.0,86,0.00,,CLR,0.00,0.00,VWS V14.01,2013-08-06 06:01:00,
2013-08-06 02:05:00,56.6,52.5,29.99,WNW,292,0.0,0.0,86,0.00,,CLR,0.00,0.00,VWS V14.01,2013-08-06 06:05:00,
2013-08-06 02:06:00,56.6,52.5,29.99,WNW,296,0.0,0.0,86,0.00,,CLR,0.00,0.00,VWS V14.01,2013-08-06 06:06:00,
2013-08-06 02:10:00,56.6,52.5,29.99,WNW,296,0.0,0.0,86,0.00,,CLR,0.00,0.00,VWS V14.01,2013-08-06 06:10:00,
2013-08-06 02:11:00,56.5,52.4,29.99,WNW,296,0.0,0.0,86,0.00,,CLR,0.00,0.00,VWS V14.01,2013-08-06 06:11:00,
2013-08-06 02:15:00,56.5,52.4,29.99,WNW,296,0.0,0.0,86,0.00,,CLR,0.00,0.00,VWS V14.01,2013-08-06 06:15:00,
2013-08-06 02:16:00,56.5,52.4,29.99,WNW,296,0.0,0.0,86,0.00,,CLR,0.00,0.00,VWS V14.01,2013-08-06 06:16:00,
2013-08-06 02:20:00,56.3,52.2,29.99,WNW,296,0.0,0.0,86,0.00,,CLR,0.00,0.00,VWS V14.01,2013-08-06 06:20:00,
2013-08-06 02:21:00,56.3,52.5,29.99,WNW,296,0.0,0.0,87,0.00,,CLR,0.00,0.00,VWS V14.01,2013-08-06 06:21:00,
2013-08-06 02:25:00,56.2,52.4,29.99,WNW,296,0.0,0.0,87,0.00,,CLR,0.00,0.00,VWS V14.01,2013-08-06 06:25:00,
2013-08-06 02:26:00,56.2,52.4,29.99,WNW,296,0.0,0.0,87,0.00,,CLR,0.00,0.00,VWS V14.01,2013-08-06 06:26:00,
2013-08-06 02:30:00,56.2,52.4,29.99,WNW,296,0.0,0.0,87,0.00,,CLR,0.00,0.00,VWS V14.01,2013-08-06 06:30:00,
2013-08-06 02:31:00,56.2,52.4,29.99,WNW,296,0.0,0.0,87,0.00,,CLR,0.00,0.00,VWS V14.01,2013-08-06 06:31:00,
2013-08-06 02:35:00,56.0,52.2,29.99,WNW,296,0.0,0.0,87,0.00,,CLR,0.00,0.00,VWS V14.01,2013-08-06 06:35:00,
2013-08-06 02:36:00,56.0,52.2,29.99,WNW,296,0.0,0.0,87,0.00,,CLR,0.00,0.00,VWS V14.01,2013-08-06 06:36:00,
2013-08-06 02:40:00,56.0,52.2,29.99,WNW,296,0.0,0.0,87,0.00,,CLR,0.00,0.00,VWS V14.01,2013-08-06 06:40:00,
2013-08-06 02:41:00,56.0,52.2,29.99,WNW,296,0.0,0.0,87,0.00,,CLR,0.00,0.00,VWS V14.01,2013-08-06 06:41:00,
2013-08-06 02:45:00,55.9,52.4,29.99,WNW,296,0.0,0.0,88,0.00,,CLR,0.00,0.00,VWS V14.01,2013-08-06 06:45:00,
2013-08-06 02:46:00,55.9,52.4,29.99,WNW,296,0.0,0.0,88,0.00,,CLR,0.00,0.00,VWS V14.01,2013-08-06 06:46:00,
2013-08-06 02:50:00,55.9,52.4,29.99,WNW,296,0.0,0.0,88,0.00,,CLR,0.00,0.00,VWS V14.01,2013-08-06 06:50:00,
2013-08-06 02:51:00,55.7,52.2,29.99,WNW,296,0.0,0.0,88,0.00,,CLR,0.00,0.00,VWS V14.01,2013-08-06 06:51:00,
2013-08-06 02:55:00,55.7,52.2,29.99,WNW,292,0.0,0.0,88,0.00,,CLR,0.00,0.00,VWS V14.01,2013-08-06 06:55:00,
2013-08-06 02:56:00,55.7,52.2,29.99,WNW,296,0.0,0.0,88,0.00,,CLR,0.00,0.00,VWS V14.01,2013-08-06 06:56:00,
2013-08-06 03:00:00,56.7,52.6,29.99,WNW,296,0.0,0.0,86,0.00,,-RA,0.00,0.00,VWS V14.01,2013-08-06 07:00:00,
2013-08-06 03:03:00,55.6,52.1,29.99,WNW,296,0.0,0.0,88,0.00,,CLR,0.00,0.00,VWS V14.01,2013-08-06 07:03:00,
2013-08-06 03:05:00,56.6,52.5,29.99,WNW,292,0.0,0.0,86,0.00,,-RA,0.00,0.00,VWS V14.01,2013-08-06 07:05:00,
2013-08-06 03:08:00,55.3,51.8,29.99,WNW,296,0.0,0.0,88,0.00,,CLR,0.00,0.00,VWS V14.01,2013-08-06 07:08:00,
2013-08-06 03:10:00,56.6,52.5,29.99,WNW,296,0.0,0.0,86,0.00,,-RA,0.00,0.00,VWS V14.01,2013-08-06 07:10:00,
2013-08-06 03:13:00,55.1,51.6,29.99,WNW,296,0.0,0.0,88,0.00,,CLR,0.00,0.00,VWS V14.01,2013-08-06 07:13:00,
2013-08-06 03:15:00,56.5,52.4,29.99,WNW,296,0.0,0.0,86,0.00,,-RA,0.00,0.00,VWS V14.01,2013-08-06 07:15:00,
2013-08-06 03:18:00,55.0,51.5,29.99,WNW,296,0.0,0.0,88,0.00,,CLR,0.00,0.00,VWS V14.01,2013-08-06 07:18:00,
2013-08-06 03:20:00,56.3,52.2,29.99,WNW,296,0.0,0.0,86,0.00,,-RA,0.00,0.00,VWS V14.01,2013-08-06 07:20:00,
2013-08-06 03:23:00,55.0,51.5,29.99,WNW,296,0.0,0.0,88,0.00,,CLR,0.00,0.00,VWS V14.01,2013-08-06 07:23:00,
2013-08-06 03:25:00,56.2,52.4,29.99,WNW,296,0.0,0.0,87,0.00,,-RA,0.00,0.00,VWS V14.01,2013-08-06 07:25:00,
2013-08-06 03:28:00,55.0,51.8,29.99,WNW,296,0.0,0.0,89,0.00,,CLR,0.00,0.00,VWS V14.01,2013-08-06 07:28:00,
2013-08-06 03:30:00,56.2,52.4,29.99,WNW,296,0.0,0.0,87,0.00,,-RA,0.00,0.00,VWS V14.01,2013-08-06 07:30:00,
2013-08-06 03:33:00,55.0,51.8,29.99,WNW,296,0.0,0.0,89,0.00,,CLR,0.00,0.00,VWS V14.01,2013-08-06 07:33:00,
2013-08-06 03:35:00,56.0,52.2,29.99,WNW,296,0.0,0.0,87,0.00,,-RA,0.00,0.00,VWS V14.01,2013-08-06 07:35:00,
2013-08-06 03:38:00,54.8,51.6,29.99,WNW,296,0.0,0.0,89,0.00,,CLR,0.00,0.00,VWS V14.01,2013-08-06 07:38:00,
2013-08-06 03:40:00,56.0,52.2,29.99,WNW,296,0.0,0.0,87,0.00,,-RA,0.00,0.00,VWS V14.01,2013-08-06 07:40:00,
2013-08-06 03:43:00,54.7,51.5,29.99,WNW,296,0.0,0.0,89,0.00,,CLR,0.00,0.00,VWS V14.01,2013-08-06 07:43:00,
2013-08-06 03:45:00,55.9,52.4,29.99,WNW,296,0.0,0.0,88,0.00,,-RA,0.00,0.00,VWS V14.01,2013-08-06 07:45:00,
2013-08-06 03:48:00,54.5,51.3,29.99,WNW,296,0.0,0.0,89,0.00,,CLR,0.00,0.00,VWS V14.01,2013-08-06 07:48:00,
2013-08-06 03:50:00,55.9,52.4,29.99,WNW,296,0.0,0.0,88,0.00,,-RA,0.00,0.00,VWS V14.01,2013-08-06 07:50:00,
2013-08-06 03:53:00,54.5,51.3,29.99,WNW,296,0.0,0.0,89,0.00,,CLR,0.00,0.00,VWS V14.01,2013-08-06 07:53:00,
2013-08-06 03:55:00,55.7,52.2,29.99,WNW,292,0.0,0.0,88,0.00,,-RA,0.00,0.00,VWS V14.01,2013-08-06 07:55:00,
2013-08-06 03:58:00,54.5,51.3,29.99,WNW,296,0.0,0.0,89,0.00,,CLR,0.00,0.00,VWS V14.01,2013-08-06 07:58:00,
2013-08-06 04:00:00,55.6,52.1,29.99,WNW,296,0.0,0.0,88,0.00,,-RA,0.00,0.00,VWS V14.01,2013-08-06 08:00:00,
2013-08-06 04:03:00,54.4,51.2,29.99,WNW,296,0.0,0.0,89,0.00,,CLR,0.00,0.00,VWS V14.01,2013-08-06 08:03:00,
2013-08-06 04:05:00,55.4,51.9,29.99,WNW,296,0.0,0.0,88,0.00,,-RA,0.00,0.00,VWS V14.01,2013-08-06 08:05:00,
2013-08-06 04:08:00,54.2,51.0,29.99,WNW,296,0.0,0.0,89,0.00,,CLR,0.00,0.00,VWS V14.01,2013-08-06 08:08:00,
2013-08-06 04:10:00,55.3,51.8,29.99,WNW,296,0.0,0.0,88,0.00,,-RA,0.00,0.00,VWS V14.01,2013-08-06 08:10:00,
2013-08-06 04:13:00,54.2,51.0,29.99,WNW,296,0.0,0.0,89,0.00,,CLR,0.00,0.00,VWS V14.01,2013-08-06 08:13:00,
2013-08-06 04:15:00,55.1,51.6,29.99,WNW,296,0.0,0.0,88,0.00,,-RA,0.00,0.00,VWS V14.01,2013-08-06 08:15:00,
2013-08-06 04:18:00,54.2,51.0,29.99,WNW,296,0.0,0.0,89,0.00,,CLR,0.00,0.00,VWS V14.01,2013-08-06 08:18:00,
2013-08-06 04:20:00,55.0,51.5,29.99,WNW,292,0.0,0.0,88,0.00,,-RA,0.00,0.00,VWS V14.01,2013-08-06 08:20:00,
2013-08-06 04:23:00,54.1,50.9,29.99,WNW,296,0.0,0.0,89,0.00,,CLR,0.00,0.00,VWS V14.01,2013-08-06 08:23:00,
2013-08-06 04:25:00,55.0,51.5,29.99,WNW,296,0.0,0.0,88,0.00,,-RA,0.00,0.00,VWS V14.01,2013-08-06 08:25:00,
2013-08-06 04:28:00,53.9,50.7,29.99,WNW,296,0.0,0.0,89,0.00,,CLR,0.00,0.00,VWS V14.01,2013-08-06 08:28:00,
2013-08-06 04:30:00,55.0,51.8,29.99,WNW,296,0.0,0.0,89,0.00,,-RA,0.00,0.00,VWS V14.01,2013-08-06 08:30:00,
2013-08-06 04:33:00,53.9,50.7,30.00,WNW,296,0.0,0.0,89,0.00,,CLR,0.00,0.00,VWS V14.01,2013-08-06 08:33:00,
2013-08-06 04:35:00,54.8,51.6,29.99,WNW,296,0.0,0.0,89,0.00,,-RA,0.00,0.00,VWS V14.01,2013-08-06 08:35:00,
2013-08-06 04:38:00,53.9,50.7,30.00,WNW,296,0.0,0.0,89,0.00,,CLR,0.00,0.00,VWS V14.01,2013-08-06 08:38:00,
2013-08-06 04:40:00,54.7,51.5,29.99,WNW,296,0.0,0.0,89,0.00,,-RA,0.00,0.00,VWS V14.01,2013-08-06 08:40:00,
2013-08-06 04:43:00,53.8,50.6,30.00,WNW,296,0.0,0.0,89,0.00,,CLR,0.00,0.00,VWS V14.01,2013-08-06 08:43:00,
2013-08-06 04:45:00,54.5,51.3,29.99,WNW,292,0.0,0.0,89,0.00,,-RA,0.00,0.00,VWS V14.01,2013-08-06 08:45:00,
2013-08-06 04:48:00,53.6,50.4,30.00,WNW,296,0.0,0.0,89,0.00,,CLR,0.00,0.00,VWS V14.01,2013-08-06 08:48:00,
2013-08-06 04:50:00,54.5,51.3,29.99,WNW,296,0.0,0.0,89,0.00,,-RA,0.00,0.00,VWS V14.01,2013-08-06 08:50:00,
2013-08-06 04:53:00,53.6,50.4,30.00,WNW,296,0.0,0.0,89,0.00,,CLR,0.00,0.00,VWS V14.01,2013-08-06 08:53:00,
2013-08-06 04:55:00,54.5,51.3,29.99,WNW,296,0.0,0.0,89,0.00,,-RA,0.00,0.00,VWS V14.01,2013-08-06 08:55:00,
2013-08-06 04:58:00,53.3,50.2,30.00,WNW,296,0.0,0.0,89,0.00,,CLR,0.00,0.00,VWS V14.01,2013-08-06 08:58:00,
2013-08-06 05:00:00,54.5,51.3,29.99,WNW,296,0.0,0.0,89,0.00,,-RA,0.00,0.00,VWS V14.01,2013-08-06 09:00:00,
2013-08-06 05:03:00,53.2,50.0,30.00,WNW,296,0.0,0.0,89,0.00,,CLR,0.00,0.00,VWS V14.01,2013-08-06 09:03:00,
2013-08-06 05:05:00,54.4,51.2,29.99,WNW,296,0.0,0.0,89,0.00,,-RA,0.00,0.00,VWS V14.01,2013-08-06 09:05:00,
2013-08-06 05:08:00,53.2,50.0,30.00,WNW,296,0.0,0.0,89,0.00,,CLR,0.00,0.00,VWS V14.01,2013-08-06 09:08:00,
2013-08-06 05:10:00,54.2,51.0,29.99,WNW,292,0.0,0.0,89,0.00,,-RA,0.00,0.00,VWS V14.01,2013-08-06 09:10:00,
2013-08-06 05:13:00,53.2,50.0,30.00,WNW,296,0.0,0.0,89,0.00,,CLR,0.00,0.00,VWS V14.01,2013-08-06 09:13:00,
2013-08-06 05:15:00,54.2,51.0,29.99,WNW,296,0.0,0.0,89,0.00,,-RA,0.00,0.00,VWS V14.01,2013-08-06 09:15:00,
2013-08-06 05:18:00,53.2,50.0,30.00,WNW,296,0.0,0.0,89,0.00,,CLR,0.00,0.00,VWS V14.01,2013-08-06 09:18:00,
2013-08-06 05:20:00,54.1,50.9,29.99,WNW,296,0.0,0.0,89,0.00,,-RA,0.00,0.00,VWS V14.01,2013-08-06 09:20:00,
2013-08-06 05:23:00,53.2,50.0,30.00,WNW,296,0.0,0.0,89,0.00,,CLR,0.00,0.00,VWS V14.01,2013-08-06 09:23:00,
2013-08-06 05:25:00,54.1,50.9,29.99,WNW,296,0.0,0.0,89,0.00,,-RA,0.00,0.00,VWS V14.01,2013-08-06 09:25:00,
2013-08-06 05:28:00,53.1,50.0,30.00,WNW,296,0.0,0.0,89,0.00,,CLR,0.00,0.00,VWS V14.01,2013-08-06 09:28:00,
2013-08-06 05:30:00,53.9,50.7,30.00,WNW,296,0.0,0.0,89,0.00,,-RA,0.00,0.00,VWS V14.01,2013-08-06 09:30:00,
2013-08-06 05:33:00,53.1,50.0,30.00,WNW,296,0.0,0.0,89,0.00,,CLR,0.00,0.00,VWS V14.01,2013-08-06 09:33:00,
2013-08-06 05:35:00,53.9,50.7,30.00,WNW,296,0.0,0.0,89,0.00,,-RA,0.00,0.00,VWS V14.01,2013-08-06 09:35:00,
2013-08-06 05:38:00,53.1,50.2,30.00,WNW,296,0.0,0.0,90,0.00,,CLR,0.00,0.00,VWS V14.01,2013-08-06 09:38:00,
2013-08-06 05:40:00,53.8,50.6,30.00,WNW,296,0.0,0.0,89,0.00,,-RA,0.00,0.00,VWS V14.01,2013-08-06 09:40:00,
2013-08-06 05:43:00,52.9,49.8,30.00,WNW,296,0.0,0.0,89,0.00,,CLR,0.00,0.00,VWS V14.01,2013-08-06 09:43:00,
2013-08-06 05:45:00,53.8,50.6,30.00,WNW,296,0.0,0.0,89,0.00,,-RA,0.00,0.00,VWS V14.01,2013-08-06 09:45:00,
2013-08-06 05:48:00,52.9,50.0,30.00,WNW,296,0.0,0.0,90,0.00,,CLR,0.00,0.00,VWS V14.01,2013-08-06 09:48:00,
2013-08-06 05:50:00,53.6,50.4,30.00,WNW,296,0.0,0.0,89,0.00,,-RA,0.00,0.00,VWS V14.01,2013-08-06 09:50:00,
2013-08-06 05:53:00,53.1,50.2,30.00,WNW,296,0.0,0.0,90,0.00,,CLR,0.00,0.00,VWS V14.01,2013-08-06 09:53:00,
2013-08-06 05:55:00,53.5,50.3,30.00,WNW,296,0.0,0.0,89,0.00,,-RA,0.00,0.00,VWS V14.01,2013-08-06 09:55:00,
2013-08-06 05:58:00,52.8,50.0,30.00,WNW,296,0.0,0.0,90,0.00,,CLR,0.00,0.00,VWS V14.01,2013-08-06 09:58:00,
2013-08-06 06:00:00,53.3,50.2,30.00,WNW,296,0.0,0.0,89,0.00,,-RA,0.00,0.00,VWS V14.01,2013-08-06 10:00:00,
2013-08-06 06:03:00,52.8,50.0,30.01,WNW,296,0.0,0.0,90,0.00,,CLR,0.00,0.00,VWS V14.01,2013-08-06 10:03:00,
2013-08-06 06:05:00,53.2,50.0,30.00,WNW,296,0.0,0.0,89,0.00,,-RA,0.00,0.00,VWS V14.01,2013-08-06 10:05:00,
2013-08-06 06:08:00,52.5,49.7,30.01,WNW,296,0.0,0.0,90,0.00,,CLR,0.00,0.00,VWS V14.01,2013-08-06 10:08:00,
2013-08-06 06:10:00,53.2,50.0,30.00,WNW,296,0.0,0.0,89,0.00,,-RA,0.00,0.00,VWS V14.01,2013-08-06 10:10:00,
2013-08-06 06:13:00,52.5,49.7,30.01,WNW,296,0.0,0.0,90,0.00,,CLR,0.00,5.00,VWS V14.01,2013-08-06 10:13:00,
2013-08-06 06:15:00,53.2,50.0,30.00,WNW,296,0.0,0.0,89,0.00,,-RA,0.00,0.00,VWS V14.01,2013-08-06 10:15:00,
2013-08-06 06:18:00,52.3,49.5,30.01,WNW,296,0.0,0.0,90,0.00,,CLR,0.00,7.00,VWS V14.01,2013-08-06 10:18:00,
2013-08-06 06:20:00,53.2,50.0,30.00,WNW,296,0.0,0.0,89,0.00,,-RA,0.00,0.00,VWS V14.01,2013-08-06 10:20:00,
2013-08-06 06:23:00,52.3,49.5,30.01,WNW,296,0.0,0.0,90,0.00,,CLR,0.00,9.00,VWS V14.01,2013-08-06 10:23:00,
2013-08-06 06:25:00,53.2,50.0,30.00,WNW,292,0.0,0.0,89,0.00,,-RA,0.00,0.00,VWS V14.01,2013-08-06 10:25:00,
2013-08-06 06:27:00,52.3,49.5,30.01,WNW,296,0.0,0.0,90,0.00,,CLR,0.00,21.00,VWS V14.01,2013-08-06 10:27:00,
2013-08-06 06:30:00,53.1,50.0,30.00,WNW,296,0.0,0.0,89,0.00,,-RA,0.00,0.00,VWS V14.01,2013-08-06 10:30:00,
2013-08-06 06:32:00,52.5,49.7,30.02,WNW,296,0.0,0.0,90,0.00,,CLR,0.00,14.00,VWS V14.01,2013-08-06 10:32:00,
2013-08-06 06:35:00,53.1,50.2,30.00,WNW,296,0.0,0.0,90,0.00,,-RA,0.00,0.00,VWS V14.01,2013-08-06 10:35:00,
2013-08-06 06:37:00,52.5,49.7,30.02,WNW,296,0.0,0.0,90,0.00,,CLR,0.00,23.00,VWS V14.01,2013-08-06 10:37:00,
2013-08-06 06:40:00,53.1,50.0,30.00,WNW,296,0.0,0.0,89,0.00,,-RA,0.00,0.00,VWS V14.01,2013-08-06 10:40:00,
2013-08-06 06:42:00,52.5,49.7,30.02,WNW,296,0.0,0.0,90,0.00,,CLR,0.00,48.00,VWS V14.01,2013-08-06 10:42:00,
2013-08-06 06:45:00,52.9,50.0,30.00,WNW,296,0.0,0.0,90,0.00,,-RA,0.00,0.00,VWS V14.01,2013-08-06 10:45:00,
2013-08-06 06:47:00,52.8,50.0,30.01,WNW,296,0.0,0.0,90,0.00,,CLR,0.00,48.00,VWS V14.01,2013-08-06 10:47:00,
2013-08-06 06:50:00,52.9,50.0,30.00,WNW,292,0.0,0.0,90,0.00,,-RA,0.00,0.00,VWS V14.01,2013-08-06 10:50:00,
2013-08-06 06:52:00,53.1,50.2,30.01,WNW,296,0.0,0.0,90,0.00,,CLR,0.00,42.00,VWS V14.01,2013-08-06 10:52:00,
2013-08-06 06:55:00,52.9,50.0,30.00,WNW,296,0.0,0.0,90,0.00,,-RA,0.00,0.00,VWS V14.01,2013-08-06 10:55:00,
2013-08-06 06:58:00,53.3,50.5,30.01,WNW,296,0.0,0.0,90,0.00,,CLR,0.00,56.00,VWS V14.01,2013-08-06 10:58:00,
2013-08-06 07:00:00,52.8,50.0,30.01,WNW,296,0.0,0.0,90,0.00,,-RA,0.00,0.00,VWS V14.01,2013-08-06 11:00:00,
2013-08-06 07:03:00,53.6,50.7,30.02,WNW,296,0.0,0.0,90,0.00,,CLR,0.00,39.00,VWS V14.01,2013-08-06 11:03:00,
2013-08-06 07:05:00,52.6,49.8,30.01,WNW,296,0.0,0.0,90,0.00,,-RA,0.00,0.00,VWS V14.01,2013-08-06 11:05:00,
2013-08-06 07:07:00,53.8,50.9,30.02,WNW,296,0.0,0.0,90,0.00,,CLR,0.00,33.00,VWS V14.01,2013-08-06 11:07:00,
2013-08-06 07:10:00,52.5,49.7,30.01,WNW,296,0.0,0.0,90,0.00,,-RA,0.00,0.00,VWS V14.01,2013-08-06 11:10:00,
2013-08-06 07:12:00,54.2,51.3,30.02,WNW,296,0.0,0.0,90,0.00,,CLR,0.00,33.00,VWS V14.01,2013-08-06 11:12:00,
2013-08-06 07:15:00,52.5,49.7,30.01,WNW,296,0.0,0.0,90,0.00,,-RA,0.00,7.00,VWS V14.01,2013-08-06 11:15:00,
2013-08-06 07:17:00,55.1,52.5,30.02,WNW,296,0.0,2.0,91,0.00,,CLR,0.00,58.00,VWS V14.01,2013-08-06 11:17:00,
2013-08-06 07:20:00,52.3,49.5,30.01,WNW,296,0.0,0.0,90,0.00,,-RA,0.00,9.00,VWS V14.01,2013-08-06 11:20:00,
2013-08-06 07:22:00,55.6,53.0,30.02,WNW,296,2.0,3.0,91,0.00,,CLR,0.00,44.00,VWS V14.01,2013-08-06 11:22:00,
2013-08-06 07:25:00,52.3,49.5,30.01,WNW,296,0.0,0.0,90,0.00,,-RA,0.00,16.00,VWS V14.01,2013-08-06 11:25:00,
2013-08-06 07:27:00,55.7,53.1,30.02,WNW,296,1.0,2.0,91,0.00,,CLR,0.00,39.00,VWS V14.01,2013-08-06 11:27:00,
2013-08-06 07:30:00,52.3,49.5,30.02,WNW,296,0.0,0.0,90,0.00,,-RA,0.00,21.00,VWS V14.01,2013-08-06 11:30:00,
2013-08-06 07:32:00,56.0,53.1,30.02,WNW,296,3.0,4.0,90,0.00,,CLR,0.00,37.00,VWS V14.01,2013-08-06 11:32:00,
2013-08-06 07:35:00,52.5,49.7,30.02,WNW,296,0.0,0.0,90,0.00,,-RA,0.00,14.00,VWS V14.01,2013-08-06 11:35:00,
2013-08-06 07:37:00,56.0,53.1,30.02,WNW,296,2.0,3.0,90,0.00,,CLR,0.00,32.00,VWS V14.01,2013-08-06 11:37:00,
2013-08-06 07:40:00,52.5,49.7,30.02,WNW,292,0.0,0.0,90,0.00,,-RA,0.00,48.00,VWS V14.01,2013-08-06 11:40:00,
2013-08-06 07:42:00,56.3,53.4,30.02,WNW,296,1.0,2.0,90,0.00,,CLR,0.00,44.00,VWS V14.01,2013-08-06 11:42:00,
2013-08-06 07:45:00,52.6,49.8,30.01,WNW,296,0.0,0.0,90,0.00,,-RA,0.00,48.00,VWS V14.01,2013-08-06 11:45:00,
2013-08-06 07:47:00,56.6,53.4,30.02,WNW,296,1.0,3.0,89,0.00,,CLR,0.00,39.00,VWS V14.01,2013-08-06 11:47:00,
2013-08-06 07:50:00,52.9,50.0,30.01,WNW,296,0.0,0.0,90,0.00,,-RA,0.00,60.00,VWS V14.01,2013-08-06 11:50:00,
2013-08-06 07:52:00,57.0,53.8,30.02,WNW,296,0.0,2.0,89,0.00,,CLR,0.00,63.00,VWS V14.01,2013-08-06 11:52:00,
2013-08-06 07:55:00,53.2,50.3,30.01,WNW,296,0.0,0.0,90,0.00,,-RA,0.00,91.00,VWS V14.01,2013-08-06 11:55:00,
2013-08-06 07:57:00,57.5,54.0,30.02,WNW,296,0.0,2.0,88,0.00,,CLR,0.00,42.00,VWS V14.01,2013-08-06 11:57:00,
2013-08-06 08:00:00,53.5,50.7,30.02,WNW,296,0.0,0.0,90,0.00,,-RA,0.00,107.00,VWS V14.01,2013-08-06 12:00:00,
2013-08-06 08:02:00,57.8,54.0,30.02,WNW,296,0.0,2.0,87,0.00,,CLR,0.00,44.00,VWS V14.01,2013-08-06 12:02:00,
2013-08-06 08:05:00,53.6,50.7,30.02,WNW,296,0.0,0.0,90,0.00,,-RA,0.00,32.00,VWS V14.01,2013-08-06 12:05:00,
2013-08-06 08:07:00,58.3,53.8,30.02,WNW,296,1.0,1.0,85,0.00,,CLR,0.00,44.00,VWS V14.01,2013-08-06 12:07:00,
2013-08-06 08:10:00,53.9,51.0,30.02,WNW,296,0.0,0.0,90,0.00,,-RA,0.00,35.00,VWS V14.01,2013-08-06 12:10:00,
2013-08-06 08:12:00,58.7,52.9,30.02,WNW,296,3.0,4.0,81,0.00,,CLR,0.00,44.00,VWS V14.01,2013-08-06 12:12:00,
2013-08-06 08:15:00,54.5,51.9,30.02,WNW,296,2.0,3.0,91,0.00,,-RA,0.00,90.00,VWS V14.01,2013-08-06 12:15:00,
2013-08-06 08:17:00,59.3,52.1,30.02,WNW,296,2.0,4.0,77,0.00,,CLR,0.00,46.00,VWS V14.01,2013-08-06 12:17:00,
2013-08-06 08:20:00,55.4,52.8,30.02,WNW,296,0.0,0.0,91,0.00,,-RA,0.00,40.00,VWS V14.01,2013-08-06 12:20:00,
2013-08-06 08:22:00,59.6,50.6,30.02,NNW,335,5.0,5.0,72,0.00,,CLR,0.00,46.00,VWS V14.01,2013-08-06 12:22:00,
2013-08-06 08:25:00,55.7,53.1,30.02,WNW,296,3.0,3.0,91,0.00,,-RA,0.00,39.00,VWS V14.01,2013-08-06 12:25:00,
2013-08-06 08:27:00,60.7,50.5,30.02,NNW,342,5.0,5.0,69,0.00,,CLR,0.00,65.00,VWS V14.01,2013-08-06 12:27:00,
2013-08-06 08:30:00,55.9,53.0,30.02,WNW,296,2.0,3.0,90,0.00,,-RA,0.00,37.00,VWS V14.01,2013-08-06 12:30:00,
2013-08-06 08:32:00,61.2,50.2,30.02,NNW,342,3.0,5.0,67,0.00,,CLR,0.00,227.00,VWS V14.01,2013-08-06 12:32:00,
2013-08-06 08:35:00,56.0,53.1,30.02,WNW,296,2.0,3.0,90,0.00,,-RA,0.00,32.00,VWS V14.01,2013-08-06 12:35:00,
2013-08-06 08:37:00,62.0,50.5,30.02,NNW,342,3.0,5.0,66,0.00,,CLR,0.00,364.00,VWS V14.01,2013-08-06 12:37:00,
2013-08-06 08:40:00,56.0,53.1,30.02,WNW,296,2.0,3.0,90,0.00,,-RA,0.00,35.00,VWS V14.01,2013-08-06 12:40:00,
2013-08-06 08:42:00,62.7,50.4,30.02,NNW,342,3.0,5.0,64,0.00,,CLR,0.00,380.00,VWS V14.01,2013-08-06 12:42:00,
2013-08-06 08:45:00,56.5,53.6,30.02,WNW,296,2.0,3.0,90,0.00,,-RA,0.00,44.00,VWS V14.01,2013-08-06 12:45:00,
2013-08-06 08:47:00,63.2,50.4,30.02,NNW,342,2.0,5.0,63,0.00,,CLR,0.00,406.00,VWS V14.01,2013-08-06 12:47:00,
2013-08-06 08:50:00,56.7,53.5,30.02,WNW,296,2.0,3.0,89,0.00,,-RA,0.00,39.00,VWS V14.01,2013-08-06 12:50:00,
2013-08-06 08:52:00,63.7,50.0,30.02,NNE,21,3.0,6.0,61,0.00,,CLR,0.00,424.00,VWS V14.01,2013-08-06 12:52:00,
2013-08-06 08:55:00,57.3,54.1,30.02,WNW,296,2.0,3.0,89,0.00,,-RA,0.00,86.00,VWS V14.01,2013-08-06 12:55:00,
2013-08-06 08:57:00,64.3,50.1,30.02,NNE,21,3.0,5.0,60,0.00,,CLR,0.00,443.00,VWS V14.01,2013-08-06 12:57:00,
2013-08-06 09:00:00,57.6,54.1,30.02,WNW,296,0.0,2.0,88,0.00,,-RA,0.00,42.00,VWS V14.01,2013-08-06 13:00:00,
2013-08-06 09:02:00,65.0,49.9,30.02,NNE,21,3.0,5.0,58,0.00,,CLR,0.00,457.00,VWS V14.01,2013-08-06 13:02:00,
2013-08-06 09:05:00,58.0,53.8,30.02,WNW,296,2.0,2.0,86,0.00,,-RA,0.00,44.00,VWS V14.01,2013-08-06 13:05:00,
2013-08-06 09:07:00,65.3,49.7,30.02,NNE,21,4.0,5.0,57,0.00,,CLR,0.00,473.00,VWS V14.01,2013-08-06 13:07:00,
2013-08-06 09:10:00,58.4,53.3,30.02,WNW,296,1.0,3.0,83,0.00,,-RA,0.00,46.00,VWS V14.01,2013-08-06 13:10:00,
2013-08-06 09:12:00,66.0,49.9,30.02,NNE,21,3.0,6.0,56,0.00,,CLR,0.00,484.00,VWS V14.01,2013-08-06 13:12:00,
2013-08-06 09:15:00,58.9,52.1,30.02,WNW,296,2.0,4.0,78,0.00,,-RA,0.00,55.00,VWS V14.01,2013-08-06 13:15:00,
2013-08-06 09:17:00,66.3,50.2,30.02,NNE,21,1.0,3.0,56,0.00,,CLR,0.00,501.00,VWS V14.01,2013-08-06 13:17:00,
2013-08-06 09:20:00,59.5,51.6,30.02,WNW,298,5.0,5.0,75,0.00,,-RA,0.00,46.00,VWS V14.01,2013-08-06 13:20:00,
2013-08-06 09:22:00,66.6,50.0,30.02,NNE,21,2.0,3.0,55,0.00,,CLR,0.00,514.00,VWS V14.01,2013-08-06 13:22:00,
2013-08-06 09:25:00,60.2,50.4,30.02,NNW,342,4.0,5.0,70,0.00,,-RA,0.00,53.00,VWS V14.01,2013-08-06 13:25:00,
2013-08-06 09:27:00,67.1,50.4,30.02,NNE,21,2.0,3.0,55,0.00,,CLR,0.00,530.00,VWS V14.01,2013-08-06 13:27:00,
2013-08-06 09:30:00,61.0,50.4,30.02,NNW,342,5.0,5.0,68,0.00,,-RA,0.00,227.00,VWS V14.01,2013-08-06 13:30:00,
2013-08-06 09:32:00,67.4,48.1,30.02,NNE,21,5.0,6.0,50,0.00,,CLR,0.00,542.00,VWS V14.01,2013-08-06 13:32:00,
2013-08-06 09:35:00,61.6,50.5,30.02,NNW,342,3.0,5.0,67,0.00,,-RA,0.00,357.00,VWS V14.01,2013-08-06 13:35:00,
2013-08-06 09:37:00,67.8,48.0,30.02,NNE,21,3.0,5.0,49,0.00,,CLR,0.00,558.00,VWS V14.01,2013-08-06 13:37:00,
2013-08-06 09:40:00,62.3,50.4,30.02,NNW,343,3.0,4.0,65,0.00,,-RA,0.00,371.00,VWS V14.01,2013-08-06 13:40:00,
2013-08-06 09:42:00,68.3,47.9,30.02,NNE,21,3.0,3.0,48,0.00,,CLR,0.00,570.00,VWS V14.01,2013-08-06 13:42:00,
2013-08-06 09:45:00,62.9,50.5,30.02,NNW,342,4.0,5.0,64,0.00,,-RA,0.00,385.00,VWS V14.01,2013-08-06 13:45:00,
2013-08-06 09:47:00,68.6,48.7,30.02,NNE,21,1.0,2.0,49,0.00,,CLR,0.00,577.00,VWS V14.01,2013-08-06 13:47:00,
2013-08-06 09:50:00,63.5,50.3,30.02,NNW,342,5.0,6.0,62,0.00,,-RA,0.00,415.00,VWS V14.01,2013-08-06 13:50:00,
2013-08-06 09:52:00,68.9,48.4,30.02,NNE,21,2.0,5.0,48,0.00,,CLR,0.00,595.00,VWS V14.01,2013-08-06 13:52:00,
2013-08-06 09:55:00,64.0,50.3,30.02,NNE,21,6.0,6.0,61,0.00,,-RA,0.00,435.00,VWS V14.01,2013-08-06 13:55:00,
2013-08-06 09:57:00,69.3,48.2,30.02,NNE,21,2.0,4.0,47,0.00,,CLR,0.00,609.00,VWS V14.01,2013-08-06 13:57:00,
2013-08-06 10:00:00,64.7,49.6,30.02,NNE,21,3.0,5.0,58,0.00,,-RA,0.00,450.00,VWS V14.01,2013-08-06 14:00:00,
2013-08-06 10:02:00,69.6,47.3,30.02,NNE,20,2.0,6.0,45,0.00,,CLR,0.00,618.00,VWS V14.01,2013-08-06 14:02:00,
2013-08-06 10:05:00,65.2,49.6,30.02,NNE,21,1.0,5.0,57,0.00,,-RA,0.00,465.00,VWS V14.01,2013-08-06 14:05:00,
2013-08-06 10:07:00,69.8,47.5,30.02,NNE,20,2.0,5.0,45,0.00,,CLR,0.00,628.00,VWS V14.01,2013-08-06 14:07:00,
2013-08-06 10:10:00,65.6,49.5,30.02,NNE,21,2.0,3.0,56,0.00,,-RA,0.00,480.00,VWS V14.01,2013-08-06 14:10:00,
2013-08-06 10:12:00,70.3,44.2,30.02,NE,38,1.0,4.0,39,0.00,,CLR,0.00,642.00,VWS V14.01,2013-08-06 14:12:00,
2013-08-06 10:15:00,66.1,50.0,30.02,NNE,21,1.0,4.0,56,0.00,,-RA,0.00,494.00,VWS V14.01,2013-08-06 14:15:00,
2013-08-06 10:17:00,71.1,44.9,30.03,NE,42,0.0,2.0,39,0.00,,CLR,0.00,658.00,VWS V14.01,2013-08-06 14:17:00,
2013-08-06 10:20:00,66.4,50.2,30.02,NNE,21,0.0,3.0,56,0.00,,-RA,0.00,509.00,VWS V14.01,2013-08-06 14:20:00,
2013-08-06 10:22:00,71.3,45.1,30.03,NNE,30,1.0,6.0,39,0.00,,CLR,0.00,667.00,VWS V14.01,2013-08-06 14:22:00,
2013-08-06 10:25:00,66.8,50.6,30.02,NNE,21,1.0,3.0,56,0.00,,-RA,0.00,521.00,VWS V14.01,2013-08-06 14:25:00,
2013-08-06 10:27:00,71.5,45.3,30.03,NNE,30,1.0,3.0,39,0.00,,CLR,0.00,676.00,VWS V14.01,2013-08-06 14:27:00,
2013-08-06 10:30:00,67.1,48.9,30.02,NNE,21,4.0,4.0,52,0.00,,-RA,0.00,537.00,VWS V14.01,2013-08-06 14:30:00,
2013-08-06 10:32:00,71.6,45.4,30.02,NNE,30,5.0,6.0,39,0.00,,CLR,0.00,686.00,VWS V14.01,2013-08-06 14:32:00,
2013-08-06 10:35:00,67.6,48.8,30.02,NNE,21,2.0,3.0,51,0.00,,-RA,0.00,549.00,VWS V14.01,2013-08-06 14:35:00,
2013-08-06 10:37:00,71.8,46.9,30.02,NNE,30,0.0,0.0,41,0.00,,CLR,0.00,706.00,VWS V14.01,2013-08-06 14:37:00,
2013-08-06 10:40:00,67.9,48.1,30.02,NNE,21,1.0,3.0,49,0.00,,-RA,0.00,560.00,VWS V14.01,2013-08-06 14:40:00,
2013-08-06 10:42:00,72.1,47.8,30.02,NNE,30,0.0,5.0,42,0.00,,CLR,0.00,721.00,VWS V14.01,2013-08-06 14:42:00,
2013-08-06 10:45:00,68.4,48.0,30.02,NNE,21,2.0,6.0,48,0.00,,-RA,0.00,574.00,VWS V14.01,2013-08-06 14:45:00,
2013-08-06 10:47:00,72.5,46.2,30.02,NNE,30,0.0,0.0,39,0.00,,CLR,0.00,748.00,VWS V14.01,2013-08-06 14:47:00,
2013-08-06 10:50:00,68.8,48.9,30.02,NNE,21,4.0,5.0,49,0.00,,-RA,0.00,588.00,VWS V14.01,2013-08-06 14:50:00,
2013-08-06 10:52:00,73.3,46.9,30.02,ENE,61,0.0,3.0,39,0.00,,CLR,0.00,801.00,VWS V14.01,2013-08-06 14:52:00,
2013-08-06 10:55:00,69.1,47.5,30.02,NNE,21,3.0,5.0,46,0.00,,-RA,0.00,604.00,VWS V14.01,2013-08-06 14:55:00,
2013-08-06 10:57:00,73.7,45.8,30.02,WNW,284,0.0,1.0,37,0.00,,CLR,0.00,797.00,VWS V14.01,2013-08-06 14:57:00,
2013-08-06 11:00:00,69.4,48.3,30.02,NNE,20,3.0,5.0,47,0.00,,-RA,0.00,616.00,VWS V14.01,2013-08-06 15:00:00,
2013-08-06 11:02:00,73.7,45.1,30.03,SSE,158,0.0,1.0,36,0.00,,CLR,0.00,799.00,VWS V14.01,2013-08-06 15:02:00,
2013-08-06 11:05:00,69.8,48.1,30.02,NNE,20,2.0,5.0,46,0.00,,-RA,0.00,625.00,VWS V14.01,2013-08-06 15:05:00,
2013-08-06 11:07:00,73.7,43.6,30.03,South,175,0.0,3.0,34,0.00,,CLR,0.00,806.00,VWS V14.01,2013-08-06 15:07:00,
2013-08-06 11:10:00,69.9,47.0,30.02,NNE,20,0.0,0.0,44,0.00,,-RA,0.00,635.00,VWS V14.01,2013-08-06 15:10:00,
2013-08-06 11:12:00,74.4,45.0,30.03,SSE,164,1.0,1.0,35,0.00,,CLR,0.00,816.00,VWS V14.01,2013-08-06 15:12:00,
2013-08-06 11:15:00,70.8,44.6,30.03,NE,38,1.0,3.0,39,0.00,,-RA,0.00,653.00,VWS V14.01,2013-08-06 15:15:00,
2013-08-06 11:17:00,74.9,43.9,30.03,SSE,158,0.0,2.0,33,0.00,,CLR,0.00,801.00,VWS V14.01,2013-08-06 15:17:00,
2013-08-06 11:20:00,71.5,44.6,30.03,NE,41,3.0,6.0,38,0.00,,-RA,0.00,663.00,VWS V14.01,2013-08-06 15:20:00,
2013-08-06 11:22:00,74.9,43.9,30.03,ESE,113,2.0,5.0,33,0.00,,CLR,0.00,808.00,VWS V14.01,2013-08-06 15:22:00,
2013-08-06 11:25:00,71.5,45.9,30.03,NNE,30,0.0,2.0,40,0.00,,-RA,0.00,674.00,VWS V14.01,2013-08-06 15:25:00,
2013-08-06 11:27:00,74.9,44.7,30.03,ESE,110,0.0,0.0,34,0.00,,CLR,0.00,841.00,VWS V14.01,2013-08-06 15:27:00,
2013-08-06 11:30:00,71.6,47.3,30.02,NNE,30,0.0,0.0,42,0.00,,-RA,0.00,683.00,VWS V14.01,2013-08-06 15:30:00,
2013-08-06 11:32:00,74.6,45.2,30.04,SW,215,0.0,5.0,35,0.00,,CLR,0.00,860.00,VWS V14.01,2013-08-06 15:32:00,
2013-08-06 11:35:00,71.8,48.7,30.02,NNE,30,0.0,2.0,44,0.00,,-RA,0.00,697.00,VWS V14.01,2013-08-06 15:35:00,
2013-08-06 11:37:00,74.6,43.6,30.04,South,185,0.0,1.0,33,0.00,,CLR,0.00,882.00,VWS V14.01,2013-08-06 15:37:00,
2013-08-06 11:40:00,72.1,47.8,30.02,NNE,30,5.0,5.0,42,0.00,,-RA,0.00,709.00,VWS V14.01,2013-08-06 15:40:00,
2013-08-06 11:42:00,75.1,44.1,30.04,SSW,206,0.0,1.0,33,0.00,,CLR,0.00,940.00,VWS V14.01,2013-08-06 15:42:00,
2013-08-06 11:45:00,72.1,46.5,30.02,NNE,30,0.0,0.0,40,0.00,,-RA,0.00,737.00,VWS V14.01,2013-08-06 15:45:00,
2013-08-06 11:47:00,75.4,42.7,30.04,SE,127,2.0,5.0,31,0.00,,CLR,0.00,1003.00,VWS V14.01,2013-08-06 15:47:00,
2013-08-06 11:50:00,72.7,46.3,30.02,NE,51,0.0,1.0,39,0.00,,-RA,0.00,769.00,VWS V14.01,2013-08-06 15:50:00,
2013-08-06 11:52:00,75.6,43.7,30.04,SSE,162,5.0,5.0,32,0.00,,CLR,0.00,1013.00,VWS V14.01,2013-08-06 15:52:00,
2013-08-06 11:55:00,73.5,47.0,30.02,ENE,61,0.0,0.0,39,0.00,,-RA,0.00,792.00,VWS V14.01,2013-08-06 15:55:00,
2013-08-06 11:57:00,76.0,45.6,30.04,ESE,104,2.0,5.0,34,0.00,,CLR,0.00,848.00,VWS V14.01,2013-08-06 15:57:00,
2013-08-06 12:00:00,73.7,44.4,30.03,SSE,160,5.0,8.0,35,0.00,,-RA,0.00,801.00,VWS V14.01,2013-08-06 16:00:00,
2013-08-06 12:02:00,75.8,44.7,30.04,SE,127,0.0,3.0,33,0.00,,SCT090,0.00,996.00,VWS V14.01,2013-08-06 16:02:00,
2013-08-06 12:05:00,73.5,44.2,30.03,SW,224,1.0,7.0,35,0.00,,-RA,0.00,802.00,VWS V14.01,2013-08-06 16:05:00,
2013-08-06 12:07:00,76.0,44.8,30.04,WSW,241,0.0,3.0,33,0.00,,SCT090,0.00,871.00,VWS V14.01,2013-08-06 16:07:00,
2013-08-06 12:10:00,73.9,44.5,30.03,SSE,164,0.0,5.0,35,0.00,,-RA,0.00,815.00,VWS V14.01,2013-08-06 16:10:00,
2013-08-06 12:12:00,75.8,42.2,30.04,SW,223,8.0,8.0,30,0.00,,SCT090,0.00,882.00,VWS V14.01,2013-08-06 16:12:00,
2013-08-06 12:15:00,74.9,43.9,30.03,SSE,167,4.0,7.0,33,0.00,,-RA,0.00,804.00,VWS V14.01,2013-08-06 16:15:00,
2013-08-06 12:17:00,74.6,42.0,30.04,SE,133,3.0,3.0,31,0.00,,SCT090,0.00,911.00,VWS V14.01,2013-08-06 16:17:00,
2013-08-06 12:20:00,74.9,41.4,30.03,West,277,0.0,5.0,30,0.00,,-RA,0.00,809.00,VWS V14.01,2013-08-06 16:20:00,
2013-08-06 12:22:00,74.9,42.3,30.04,NE,51,0.0,2.0,31,0.00,,SCT090,0.00,926.00,VWS V14.01,2013-08-06 16:22:00,
2013-08-06 12:25:00,74.7,45.3,30.03,ESE,110,0.0,3.0,35,0.00,,-RA,0.00,822.00,VWS V14.01,2013-08-06 16:25:00,
2013-08-06 12:27:00,74.9,41.4,30.04,SE,137,0.0,0.0,30,0.00,,SCT090,0.00,887.00,VWS V14.01,2013-08-06 16:27:00,
2013-08-06 12:30:00,74.7,46.0,30.04,SW,236,5.0,7.0,36,0.00,,-RA,0.00,853.00,VWS V14.01,2013-08-06 16:30:00,
2013-08-06 12:32:00,75.4,45.1,30.04,SSE,150,0.0,0.0,34,0.00,,SCT090,0.00,957.00,VWS V14.01,2013-08-06 16:32:00,
2013-08-06 12:35:00,74.4,44.2,30.04,SSW,213,0.0,3.0,34,0.00,,-RA,0.00,869.00,VWS V14.01,2013-08-06 16:35:00,
2013-08-06 12:37:00,76.1,42.5,30.04,East,79,0.0,2.0,30,0.00,,SCT090,0.00,943.00,VWS V14.01,2013-08-06 16:37:00,
2013-08-06 12:40:00,74.7,42.9,30.04,SW,230,3.0,5.0,32,0.00,,-RA,0.00,915.00,VWS V14.01,2013-08-06 16:40:00,
2013-08-06 12:42:00,76.1,44.9,30.04,East,80,0.0,0.0,33,0.00,,SCT090,0.00,941.00,VWS V14.01,2013-08-06 16:42:00,
2013-08-06 12:45:00,75.4,42.7,30.04,SE,128,2.0,6.0,31,0.00,,-RA,0.00,984.00,VWS V14.01,2013-08-06 16:45:00,
2013-08-06 12:47:00,75.8,43.9,30.04,SW,226,5.0,11.0,32,0.00,,SCT090,0.00,962.00,VWS V14.01,2013-08-06 16:47:00,
2013-08-06 12:50:00,75.6,44.5,30.04,SE,128,0.0,1.0,33,0.00,,-RA,0.00,1013.00,VWS V14.01,2013-08-06 16:50:00,
2013-08-06 12:52:00,76.0,43.2,30.04,SSE,151,0.0,4.0,31,0.00,,SCT090,0.00,1013.00,VWS V14.01,2013-08-06 16:52:00,
2013-08-06 12:55:00,75.8,44.7,30.04,SSE,161,0.0,0.0,33,0.00,,-RA,0.00,848.00,VWS V14.01,2013-08-06 16:55:00,
2013-08-06 12:57:00,75.6,42.9,30.04,East,97,1.0,6.0,31,0.00,,SCT090,0.00,966.00,VWS V14.01,2013-08-06 16:57:00,
2013-08-06 13:00:00,75.8,44.7,30.04,ESE,117,0.0,3.0,33,0.00,,-RA,0.00,996.00,VWS V14.01,2013-08-06 17:00:00,
2013-08-06 13:02:00,76.0,44.0,30.04,SE,141,0.0,3.0,32,0.00,,BKN095,0.00,927.00,VWS V14.01,2013-08-06 17:02:00,
2013-08-06 13:05:00,76.0,47.2,30.04,SE,127,0.0,0.0,36,0.00,,-RA,0.00,890.00,VWS V14.01,2013-08-06 17:05:00,
2013-08-06 13:07:00,76.7,43.0,30.04,ENE,69,0.0,2.0,30,0.00,,BKN095,0.00,922.00,VWS V14.01,2013-08-06 17:07:00,
2013-08-06 13:10:00,76.0,44.0,30.04,SW,220,0.0,3.0,32,0.00,,-RA,0.00,874.00,VWS V14.01,2013-08-06 17:10:00,
2013-08-06 13:12:00,76.3,41.7,30.04,East,97,0.0,2.0,29,0.00,,BKN095,0.00,183.00,VWS V14.01,2013-08-06 17:12:00,
2013-08-06 13:15:00,74.7,42.9,30.04,SW,216,0.0,2.0,32,0.00,,-RA,0.00,908.00,VWS V14.01,2013-08-06 17:15:00,
2013-08-06 13:17:00,76.0,43.2,30.03,SE,145,0.0,7.0,31,0.00,,BKN095,0.00,938.00,VWS V14.01,2013-08-06 17:17:00,
2013-08-06 13:20:00,74.7,43.7,30.04,NE,52,3.0,3.0,33,0.00,,-RA,0.00,926.00,VWS V14.01,2013-08-06 17:20:00,
2013-08-06 13:22:00,76.7,45.5,30.03,ESE,103,2.0,2.0,33,0.00,,BKN095,0.00,940.00,VWS V14.01,2013-08-06 17:22:00,
2013-08-06 13:25:00,74.9,41.4,30.04,SE,137,0.0,5.0,30,0.00,,-RA,0.00,938.00,VWS V14.01,2013-08-06 17:25:00,
2013-08-06 13:27:00,77.2,45.1,30.03,ESE,103,0.0,0.0,32,0.00,,BKN095,0.00,941.00,VWS V14.01,2013-08-06 17:27:00,
2013-08-06 13:30:00,75.1,42.4,30.04,SSE,150,0.0,6.0,31,0.00,,-RA,0.00,970.00,VWS V14.01,2013-08-06 17:30:00,
2013-08-06 13:32:00,77.4,45.3,30.03,SE,133,0.0,1.0,32,0.00,,BKN095,0.00,943.00,VWS V14.01,2013-08-06 17:32:00,
2013-08-06 13:35:00,75.8,44.7,30.04,NNE,28,1.0,3.0,33,0.00,,-RA,0.00,943.00,VWS V14.01,2013-08-06 17:35:00,
2013-08-06 13:37:00,77.4,44.4,30.03,SSE,160,0.0,8.0,31,0.00,,BKN095,0.00,955.00,VWS V14.01,2013-08-06 17:37:00,
2013-08-06 13:40:00,76.1,42.5,30.04,East,80,2.0,2.0,30,0.00,,-RA,0.00,241.00,VWS V14.01,2013-08-06 17:40:00,
2013-08-06 13:42:00,77.2,45.1,30.03,East,95,1.0,2.0,32,0.00,,BKN095,0.00,1021.00,VWS V14.01,2013-08-06 17:42:00,
2013-08-06 13:45:00,76.0,43.2,30.04,SW,230,2.0,6.0,31,0.00,,-RA,0.00,940.00,VWS V14.01,2013-08-06 17:45:00,
2013-08-06 13:47:00,76.8,43.0,30.03,ENE,78,5.0,7.0,30,0.00,,BKN095,0.00,297.00,VWS V14.01,2013-08-06 17:47:00,
2013-08-06 13:50:00,75.6,42.9,30.04,SSE,151,0.0,7.0,31,0.00,,-RA,0.00,1013.00,VWS V14.01,2013-08-06 17:50:00,
2013-08-06 13:52:00,76.0,45.6,30.03,ESE,112,0.0,3.0,34,0.00,,BKN095,0.00,259.00,VWS V14.01,2013-08-06 17:52:00,
2013-08-06 13:55:00,76.0,42.4,30.04,SE,140,5.0,6.0,30,0.00,,-RA,0.00,1021.00,VWS V14.01,2013-08-06 17:55:00,
2013-08-06 13:57:00,75.6,43.7,30.03,ESE,112,0.0,2.0,32,0.00,,BKN095,0.00,303.00,VWS V14.01,2013-08-06 17:57:00,
2013-08-06 14:00:00,75.8,43.0,30.04,SSE,161,2.0,6.0,31,0.00,,-RA,0.00,938.00,VWS V14.01,2013-08-06 18:00:00,
2013-08-06 14:02:00,75.8,44.7,30.03,ESE,112,0.0,0.0,33,0.00,,BKN090,0.00,317.00,VWS V14.01,2013-08-06 18:02:00,
2013-08-06 14:05:00,76.5,43.7,30.04,ESE,121,0.0,0.0,31,0.00,,-RA,0.00,920.00,VWS V14.01,2013-08-06 18:05:00,
2013-08-06 14:07:00,76.1,44.1,30.03,SE,134,0.0,2.0,32,0.00,,BKN090,0.00,317.00,VWS V14.01,2013-08-06 18:07:00,
2013-08-06 14:10:00,76.5,43.7,30.04,East,97,0.0,4.0,31,0.00,,-RA,0.00,174.00,VWS V14.01,2013-08-06 18:10:00,
2013-08-06 14:12:00,76.0,43.2,30.03,SSW,199,0.0,5.0,31,0.00,,BKN090,0.00,1019.00,VWS V14.01,2013-08-06 18:12:00,
2013-08-06 14:15:00,76.3,43.5,30.03,East,99,1.0,3.0,31,0.00,,-RA,0.00,926.00,VWS V14.01,2013-08-06 18:15:00,
2013-08-06 14:17:00,76.0,42.4,30.03,SSE,162,1.0,6.0,30,0.00,,BKN090,0.00,241.00,VWS V14.01,2013-08-06 18:17:00,
2013-08-06 14:20:00,76.3,43.5,30.03,ESE,103,0.0,1.0,31,0.00,,-RA,0.00,947.00,VWS V14.01,2013-08-06 18:20:00,
2013-08-06 14:22:00,75.4,44.3,30.03,South,172,0.0,3.0,33,0.00,,BKN090,0.00,296.00,VWS V14.01,2013-08-06 18:22:00,
2013-08-06 14:25:00,77.0,42.3,30.03,ESE,103,0.0,0.0,29,0.00,,-RA,0.00,941.00,VWS V14.01,2013-08-06 18:25:00,
2013-08-06 14:27:00,75.4,45.1,30.03,South,174,0.0,0.0,34,0.00,,BKN090,0.00,238.00,VWS V14.01,2013-08-06 18:27:00,
2013-08-06 14:30:00,77.2,44.3,30.03,SE,136,0.0,4.0,31,0.00,,-RA,0.00,926.00,VWS V14.01,2013-08-06 18:30:00,
2013-08-06 14:32:00,76.0,44.0,30.02,South,174,0.0,0.0,32,0.00,,BKN090,0.00,257.00,VWS V14.01,2013-08-06 18:32:00,
2013-08-06 14:35:00,77.6,45.4,30.03,SSE,150,2.0,4.0,32,0.00,,-RA,0.00,938.00,VWS V14.01,2013-08-06 18:35:00,
2013-08-06 14:37:00,76.3,41.7,30.02,SE,134,2.0,3.0,29,0.00,,BKN090,0.00,994.00,VWS V14.01,2013-08-06 18:37:00,
2013-08-06 14:40:00,77.2,45.1,30.03,ENE,75,0.0,5.0,32,0.00,,-RA,0.00,998.00,VWS V14.01,2013-08-06 18:40:00,
2013-08-06 14:42:00,76.7,43.0,30.02,SSW,208,2.0,8.0,30,0.00,,BKN090,0.00,964.00,VWS V14.01,2013-08-06 18:42:00,
2013-08-06 14:45:00,77.0,44.1,30.03,East,88,2.0,3.0,31,0.00,,-RA,0.00,1015.00,VWS V14.01,2013-08-06 18:45:00,
2013-08-06 14:47:00,77.7,42.9,30.02,SSW,199,0.0,6.0,29,0.00,,BKN090,0.00,890.00,VWS V14.01,2013-08-06 18:47:00,
2013-08-06 14:50:00,76.1,44.1,30.03,East,80,0.0,6.0,32,0.00,,-RA,0.00,296.00,VWS V14.01,2013-08-06 18:50:00,
2013-08-06 14:51:00,77.9,43.1,30.02,SW,232,3.0,8.0,29,0.00,,BKN090,0.00,859.00,VWS V14.01,2013-08-06 18:51:00,
2013-08-06 14:55:00,76.0,43.2,30.03,ESE,112,0.0,2.0,31,0.00,,-RA,0.00,266.00,VWS V14.01,2013-08-06 18:55:00,
2013-08-06 14:56:00,78.1,43.3,30.02,SSW,195,0.0,3.0,29,0.00,,BKN090,0.00,894.00,VWS V14.01,2013-08-06 18:56:00,
2013-08-06 15:00:00,75.6,45.3,30.03,ESE,112,0.0,0.0,34,0.00,,-RA,0.00,317.00,VWS V14.01,2013-08-06 19:00:00,
2013-08-06 15:01:00,77.9,42.2,30.02,South,182,1.0,3.0,28,0.00,,BKN090,0.00,882.00,VWS V14.01,2013-08-06 19:01:00,
2013-08-06 15:05:00,76.0,46.4,30.03,SE,134,0.0,1.0,35,0.00,,-RA,0.00,266.00,VWS V14.01,2013-08-06 19:05:00,
2013-08-06 15:06:00,77.4,42.7,30.02,South,174,0.0,2.0,29,0.00,,BKN090,0.00,257.00,VWS V14.01,2013-08-06 19:06:00,
2013-08-06 15:10:00,76.1,43.3,30.03,South,191,3.0,7.0,31,0.00,,-RA,0.00,1019.00,VWS V14.01,2013-08-06 19:10:00,
2013-08-06 15:11:00,77.4,42.7,30.02,SW,229,3.0,7.0,29,0.00,,BKN090,0.00,816.00,VWS V14.01,2013-08-06 19:11:00,
2013-08-06 15:15:00,76.1,43.3,30.03,SSE,154,0.0,8.0,31,0.00,,-RA,0.00,238.00,VWS V14.01,2013-08-06 19:15:00,
2013-08-06 15:16:00,77.7,42.9,30.02,SSW,200,0.0,7.0,29,0.00,,BKN090,0.00,764.00,VWS V14.01,2013-08-06 19:16:00,
2013-08-06 15:20:00,75.6,44.5,30.03,South,172,0.0,7.0,33,0.00,,-RA,0.00,266.00,VWS V14.01,2013-08-06 19:20:00,
2013-08-06 15:21:00,77.7,42.9,30.02,SSE,160,0.0,6.0,29,0.00,,BKN090,0.00,750.00,VWS V14.01,2013-08-06 19:21:00,
2013-08-06 15:25:00,75.3,45.8,30.03,South,174,0.0,3.0,35,0.00,,-RA,0.00,306.00,VWS V14.01,2013-08-06 19:25:00,
2013-08-06 15:26:00,78.1,42.4,30.02,ESE,121,3.0,4.0,28,0.00,,BKN090,0.00,725.00,VWS V14.01,2013-08-06 19:26:00,
2013-08-06 15:30:00,75.8,44.7,30.02,South,174,0.0,0.0,33,0.00,,-RA,0.00,257.00,VWS V14.01,2013-08-06 19:30:00,
2013-08-06 15:31:00,78.1,42.4,30.01,East,83,0.0,3.0,28,0.00,,BKN090,0.00,737.00,VWS V14.01,2013-08-06 19:31:00,
2013-08-06 15:35:00,76.1,43.3,30.02,SE,126,0.0,3.0,31,0.00,,-RA,0.00,992.00,VWS V14.01,2013-08-06 19:35:00,
2013-08-06 15:36:00,77.9,41.3,30.01,SSE,147,0.0,6.0,27,0.00,,BKN090,0.00,713.00,VWS V14.01,2013-08-06 19:36:00,
2013-08-06 15:40:00,76.5,42.8,30.02,SE,134,0.0,2.0,30,0.00,,-RA,0.00,975.00,VWS V14.01,2013-08-06 19:40:00,
2013-08-06 15:41:00,77.9,44.9,30.01,SSE,162,1.0,10.0,31,0.00,,BKN090,0.00,718.00,VWS V14.01,2013-08-06 19:41:00,
2013-08-06 15:45:00,77.4,41.8,30.02,SSE,152,1.0,6.0,28,0.00,,-RA,0.00,910.00,VWS V14.01,2013-08-06 19:45:00,
2013-08-06 15:46:00,77.2,43.4,30.01,SE,126,0.0,3.0,30,0.00,,BKN090,0.00,702.00,VWS V14.01,2013-08-06 19:46:00,
2013-08-06 15:50:00,77.7,43.8,30.02,SSW,199,0.0,1.0,30,0.00,,-RA,0.00,860.00,VWS V14.01,2013-08-06 19:50:00,
2013-08-06 15:51:00,77.6,43.7,30.01,SSE,161,0.0,2.0,30,0.00,,BKN090,0.00,688.00,VWS V14.01,2013-08-06 19:51:00,
2013-08-06 15:55:00,78.3,42.5,30.02,SSW,198,2.0,6.0,28,0.00,,-RA,0.00,859.00,VWS V14.01,2013-08-06 19:55:00,
2013-08-06 15:56:00,78.3,42.5,30.01,South,171,1.0,5.0,28,0.00,,BKN090,0.00,677.00,VWS V14.01,2013-08-06 19:56:00,
2013-08-06 16:00:00,77.9,44.0,30.02,SSE,167,1.0,6.0,30,0.00,,-RA,0.00,876.00,VWS V14.01,2013-08-06 20:00:00,
2013-08-06 16:01:00,78.6,41.9,30.01,SE,144,0.0,1.0,27,0.00,,OVC070,0.00,676.00,VWS V14.01,2013-08-06 20:01:00,
2013-08-06 16:05:00,77.6,42.0,30.02,South,175,0.0,5.0,28,0.00,,-RA,0.00,257.00,VWS V14.01,2013-08-06 20:05:00,
2013-08-06 16:06:00,78.1,42.4,30.01,SW,215,0.0,5.0,28,0.00,,OVC070,0.00,676.00,VWS V14.01,2013-08-06 20:06:00,
2013-08-06 16:10:00,77.2,42.5,30.02,SE,145,0.0,8.0,29,0.00,,-RA,0.00,829.00,VWS V14.01,2013-08-06 20:10:00,
2013-08-06 16:11:00,78.5,41.8,30.01,SSE,152,2.0,5.0,27,0.00,,OVC070,0.00,677.00,VWS V14.01,2013-08-06 20:11:00,
2013-08-06 16:15:00,77.6,42.9,30.02,SSW,199,0.0,7.0,29,0.00,,-RA,0.00,787.00,VWS V14.01,2013-08-06 20:15:00,
2013-08-06 16:16:00,78.6,42.8,30.02,SSE,154,1.0,2.0,28,0.00,,OVC070,0.00,609.00,VWS V14.01,2013-08-06 20:16:00,
2013-08-06 16:20:00,77.7,42.0,30.02,SSE,155,2.0,7.0,28,0.00,,-RA,0.00,746.00,VWS V14.01,2013-08-06 20:20:00,
2013-08-06 16:21:00,77.9,42.2,30.02,SSE,151,0.0,7.0,28,0.00,,OVC070,0.00,361.00,VWS V14.01,2013-08-06 20:21:00,
2013-08-06 16:25:00,78.1,42.4,30.02,SE,133,0.0,7.0,28,0.00,,-RA,0.00,741.00,VWS V14.01,2013-08-06 20:25:00,
2013-08-06 16:26:00,77.6,42.0,30.02,ESE,120,1.0,11.0,28,0.00,,OVC070,0.00,482.00,VWS V14.01,2013-08-06 20:26:00,
2013-08-06 16:30:00,78.1,42.4,30.01,SE,140,1.0,6.0,28,0.00,,-RA,0.00,743.00,VWS V14.01,2013-08-06 20:30:00,
2013-08-06 16:31:00,77.4,42.7,30.02,South,181,0.0,6.0,29,0.00,,OVC070,0.00,618.00,VWS V14.01,2013-08-06 20:31:00,
2013-08-06 16:32:00,77.4,42.7,30.02,South,181,0.0,6.0,29,0.00,,OVC070,0.00,618.00,VWS V14.01,2013-08-06 20:32:00,
2013-08-06 16:35:00,78.1,42.4,30.01,SSE,148,3.0,6.0,28,0.00,,-RA,0.00,721.00,VWS V14.01,2013-08-06 20:35:00,
2013-08-06 16:37:00,76.8,43.0,30.02,South,171,0.0,0.0,30,0.00,,OVC070,0.00,130.00,VWS V14.01,2013-08-06 20:37:00,
2013-08-06 16:40:00,77.9,44.9,30.01,SE,131,10.0,10.0,31,0.00,,-RA,0.00,718.00,VWS V14.01,2013-08-06 20:40:00,
2013-08-06 16:42:00,76.8,43.9,30.02,East,80,0.0,3.0,31,0.00,,OVC070,0.00,216.00,VWS V14.01,2013-08-06 20:42:00,
2013-08-06 16:45:00,77.4,41.8,30.01,SE,144,1.0,7.0,28,0.00,,-RA,0.00,704.00,VWS V14.01,2013-08-06 20:45:00,
2013-08-06 16:47:00,77.4,45.3,30.02,East,90,0.0,0.0,32,0.00,,OVC070,0.00,246.00,VWS V14.01,2013-08-06 20:47:00,
2013-08-06 16:50:00,77.4,43.6,30.01,WSW,243,0.0,6.0,30,0.00,,-RA,0.00,688.00,VWS V14.01,2013-08-06 20:50:00,
2013-08-06 16:52:00,77.4,41.8,30.02,SSE,160,0.0,6.0,28,0.00,,OVC070,0.00,236.00,VWS V14.01,2013-08-06 20:52:00,
2013-08-06 16:55:00,78.1,42.4,30.01,South,182,0.0,7.0,28,0.00,,-RA,0.00,679.00,VWS V14.01,2013-08-06 20:55:00,
2013-08-06 16:57:00,77.4,44.4,30.02,SE,141,2.0,2.0,31,0.00,,OVC070,0.00,320.00,VWS V14.01,2013-08-06 20:57:00,
2013-08-06 17:00:00,78.5,42.7,30.01,SE,144,0.0,3.0,28,0.00,,-RA,0.00,676.00,VWS V14.01,2013-08-06 21:00:00,
2013-08-06 17:02:00,77.7,44.7,30.02,SE,134,0.0,1.0,31,0.00,,OVC095,0.00,632.00,VWS V14.01,2013-08-06 21:02:00,
2013-08-06 17:05:00,78.1,42.4,30.01,SSE,151,0.0,5.0,28,0.00,,-RA,0.00,676.00,VWS V14.01,2013-08-06 21:05:00,
2013-08-06 17:07:00,77.4,44.4,30.02,SSW,203,2.0,6.0,31,0.00,,OVC095,0.00,213.00,VWS V14.01,2013-08-06 21:07:00,
2013-08-06 17:10:00,78.5,42.7,30.01,SSE,157,2.0,2.0,28,0.00,,-RA,0.00,676.00,VWS V14.01,2013-08-06 21:10:00,
2013-08-06 17:12:00,76.5,44.5,30.02,SSE,161,0.0,3.0,32,0.00,,OVC095,0.00,241.00,VWS V14.01,2013-08-06 21:12:00,
2013-08-06 17:15:00,78.6,41.9,30.02,SSE,154,1.0,3.0,27,0.00,,-RA,0.00,642.00,VWS V14.01,2013-08-06 21:15:00,
2013-08-06 17:17:00,76.3,45.1,30.02,SSE,147,0.0,3.0,33,0.00,,OVC095,0.00,241.00,VWS V14.01,2013-08-06 21:17:00,
2013-08-06 17:20:00,78.1,42.4,30.02,SSE,147,0.0,12.0,28,0.00,,-RA,0.00,364.00,VWS V14.01,2013-08-06 21:20:00,
2013-08-06 17:22:00,76.3,45.9,30.02,SSE,160,0.0,3.0,34,0.00,,OVC095,0.00,222.00,VWS V14.01,2013-08-06 21:22:00,
2013-08-06 17:25:00,77.7,42.0,30.02,SSE,165,0.0,3.0,28,0.00,,-RA,0.00,482.00,VWS V14.01,2013-08-06 21:25:00,
2013-08-06 17:27:00,76.1,45.7,30.02,SE,141,6.0,8.0,34,0.00,,OVC095,0.00,311.00,VWS V14.01,2013-08-06 21:27:00,
2013-08-06 17:30:00,77.4,42.7,30.02,SSE,160,0.0,6.0,29,0.00,,-RA,0.00,618.00,VWS V14.01,2013-08-06 21:30:00,
2013-08-06 17:32:00,76.0,46.4,30.02,SE,137,3.0,10.0,35,0.00,,OVC095,0.00,253.00,VWS V14.01,2013-08-06 21:32:00,
2013-08-06 17:35:00,77.0,42.3,30.02,South,172,0.0,6.0,29,0.00,,-RA,0.00,130.00,VWS V14.01,2013-08-06 21:35:00,
2013-08-06 17:37:00,76.1,47.2,30.02,SSE,167,0.0,11.0,36,0.00,,OVC095,0.00,465.00,VWS V14.01,2013-08-06 21:37:00,
2013-08-06 17:40:00,76.8,43.0,30.02,East,80,3.0,3.0,30,0.00,,-RA,0.00,216.00,VWS V14.01,2013-08-06 21:40:00,
2013-08-06 17:42:00,76.0,47.9,30.02,SE,133,0.0,6.0,37,0.00,,OVC095,0.00,424.00,VWS V14.01,2013-08-06 21:42:00,
2013-08-06 17:45:00,77.0,43.2,30.02,East,90,0.0,0.0,30,0.00,,-RA,0.00,674.00,VWS V14.01,2013-08-06 21:45:00,
2013-08-06 17:47:00,75.8,47.7,30.02,ESE,102,0.0,11.0,37,0.00,,OVC095,0.00,371.00,VWS V14.01,2013-08-06 21:47:00,
2013-08-06 17:50:00,77.6,44.6,30.02,ESE,103,1.0,1.0,31,0.00,,-RA,0.00,243.00,VWS V14.01,2013-08-06 21:50:00,
2013-08-06 17:52:00,75.8,48.4,30.02,SW,219,0.0,10.0,38,0.00,,OVC095,0.00,327.00,VWS V14.01,2013-08-06 21:52:00,
2013-08-06 17:55:00,77.4,44.4,30.02,SSE,161,0.0,0.0,31,0.00,,-RA,0.00,243.00,VWS V14.01,2013-08-06 21:55:00,
2013-08-06 17:56:00,76.0,48.6,30.02,SE,145,7.0,14.0,38,0.00,,OVC095,0.00,334.00,VWS V14.01,2013-08-06 21:56:00,
2013-08-06 18:00:00,77.6,44.6,30.02,SE,131,0.0,3.0,31,0.00,,-RA,0.00,632.00,VWS V14.01,2013-08-06 22:00:00,
2013-08-06 18:01:00,75.3,48.0,30.02,SW,229,5.0,7.0,38,0.00,,OVC090,0.00,318.00,VWS V14.01,2013-08-06 22:01:00,
2013-08-06 18:05:00,77.6,44.6,30.02,SSW,196,0.0,5.0,31,0.00,,-RA,0.00,209.00,VWS V14.01,2013-08-06 22:05:00,
2013-08-06 18:06:00,74.6,50.0,30.02,SSW,192,1.0,13.0,42,0.00,,OVC090,0.00,63.00,VWS V14.01,2013-08-06 22:06:00,
2013-08-06 18:10:00,76.7,43.8,30.02,SSE,160,0.0,4.0,31,0.00,,-RA,0.00,245.00,VWS V14.01,2013-08-06 22:10:00,
2013-08-06 18:11:00,73.2,51.2,30.02,South,178,12.0,16.0,46,0.00,,OVC090,0.00,56.00,VWS V14.01,2013-08-06 22:11:00,
2013-08-06 18:15:00,76.3,45.9,30.02,SSE,158,0.0,1.0,34,0.00,,-RA,0.00,246.00,VWS V14.01,2013-08-06 22:15:00,
2013-08-06 18:16:00,72.5,51.7,30.02,SE,143,0.0,6.0,48,0.00,,OVC090,0.00,72.00,VWS V14.01,2013-08-06 22:16:00,
2013-08-06 18:20:00,76.3,46.7,30.02,SSE,148,0.0,1.0,35,0.00,,-RA,0.00,211.00,VWS V14.01,2013-08-06 22:20:00,
2013-08-06 18:21:00,72.1,51.9,30.02,South,182,7.0,7.0,49,0.00,,OVC090,0.00,88.00,VWS V14.01,2013-08-06 22:21:00,
2013-08-06 18:25:00,76.3,45.1,30.02,SE,145,4.0,4.0,33,0.00,,-RA,0.00,311.00,VWS V14.01,2013-08-06 22:25:00,
2013-08-06 18:26:00,72.0,50.7,30.02,South,178,0.0,2.0,47,0.00,,OVC090,0.00,86.00,VWS V14.01,2013-08-06 22:26:00,
2013-08-06 18:30:00,76.0,45.6,30.02,ESE,121,0.0,7.0,34,0.00,,-RA,0.00,253.00,VWS V14.01,2013-08-06 22:30:00,
2013-08-06 18:31:00,71.8,50.5,30.03,SSE,161,2.0,3.0,47,0.00,,OVC090,0.00,55.00,VWS V14.01,2013-08-06 22:31:00,
2013-08-06 18:35:00,76.0,47.2,30.02,South,185,0.0,5.0,36,0.00,,-RA,0.00,436.00,VWS V14.01,2013-08-06 22:35:00,
2013-08-06 18:36:00,71.5,50.2,30.03,South,184,2.0,8.0,47,0.00,,OVC090,0.00,46.00,VWS V14.01,2013-08-06 22:36:00,
2013-08-06 18:40:00,76.1,46.5,30.02,SSE,157,0.0,5.0,35,0.00,,-RA,0.00,428.00,VWS V14.01,2013-08-06 22:40:00,
2013-08-06 18:41:00,71.3,50.6,30.03,SSE,148,6.0,6.0,48,0.00,,OVC090,0.00,44.00,VWS V14.01,2013-08-06 22:41:00,
2013-08-06 18:45:00,76.0,47.2,30.02,SSE,147,2.0,11.0,36,0.00,,-RA,0.00,385.00,VWS V14.01,2013-08-06 22:45:00,
2013-08-06 18:46:00,70.9,50.8,30.04,SE,137,0.0,4.0,49,0.00,,OVC090,0.00,44.00,VWS V14.01,2013-08-06 22:46:00,
2013-08-06 18:50:00,75.6,48.2,30.02,South,179,0.0,5.0,38,0.00,,-RA,0.00,357.00,VWS V14.01,2013-08-06 22:50:00,
2013-08-06 18:51:00,70.9,51.3,30.04,SSE,155,0.0,3.0,50,0.00,,OVC090,0.00,46.00,VWS V14.01,2013-08-06 22:51:00,
2013-08-06 18:55:00,76.0,47.9,30.02,SSE,155,0.0,4.0,37,0.00,,-RA,0.00,345.00,VWS V14.01,2013-08-06 22:55:00,
2013-08-06 18:56:00,70.6,51.6,30.04,SSE,158,0.0,2.0,51,0.00,,OVC090,0.00,42.00,VWS V14.01,2013-08-06 22:56:00,
2013-08-06 19:00:00,75.4,48.0,30.02,SSE,151,2.0,16.0,38,0.00,,-RA,0.00,326.00,VWS V14.01,2013-08-06 23:00:00,
2013-08-06 19:01:00,70.4,52.5,30.04,SSW,196,0.0,5.0,53,0.00,,OVC085,0.00,48.00,VWS V14.01,2013-08-06 23:01:00,
2013-08-06 19:05:00,75.1,49.2,30.02,SW,224,5.0,9.0,40,0.00,,-RA,0.00,67.00,VWS V14.01,2013-08-06 23:05:00,
2013-08-06 19:06:00,70.3,52.9,30.04,SSE,157,0.0,3.0,54,0.00,,OVC085,0.00,49.00,VWS V14.01,2013-08-06 23:06:00,
2013-08-06 19:10:00,73.7,51.1,30.02,SSE,162,16.0,16.0,45,0.00,,-RA,0.00,55.00,VWS V14.01,2013-08-06 23:10:00,
2013-08-06 19:11:00,70.3,53.4,30.04,SSE,162,0.0,3.0,55,0.00,,OVC085,0.00,49.00,VWS V14.01,2013-08-06 23:11:00,
2013-08-06 19:15:00,72.7,51.9,30.02,SE,124,2.0,6.0,48,0.00,,-RA,0.00,63.00,VWS V14.01,2013-08-06 23:15:00,
2013-08-06 19:16:00,70.1,53.7,30.04,SSE,151,0.0,6.0,56,0.00,,OVC085,0.00,37.00,VWS V14.01,2013-08-06 23:16:00,
2013-08-06 19:20:00,72.3,52.1,30.02,SW,217,1.0,10.0,49,0.00,,-RA,0.00,81.00,VWS V14.01,2013-08-06 23:20:00,
2013-08-06 19:21:00,70.1,54.2,30.04,SSE,160,0.0,5.0,57,0.00,,OVC085,0.00,35.00,VWS V14.01,2013-08-06 23:21:00,
2013-08-06 19:25:00,72.0,51.3,30.02,SSE,164,0.0,3.0,48,0.00,,-RA,0.00,90.00,VWS V14.01,2013-08-06 23:25:00,
2013-08-06 19:26:00,69.9,54.5,30.04,South,171,0.0,1.0,58,0.00,,OVC085,0.00,35.00,VWS V14.01,2013-08-06 23:26:00,
2013-08-06 19:30:00,71.8,49.9,30.03,South,185,1.0,8.0,46,0.00,,-RA,0.00,60.00,VWS V14.01,2013-08-06 23:30:00,
2013-08-06 19:31:00,69.8,54.4,30.04,SSE,151,0.0,0.0,58,0.00,,OVC085,0.00,33.00,VWS V14.01,2013-08-06 23:31:00,
2013-08-06 19:35:00,71.6,49.8,30.03,SSE,154,6.0,12.0,46,0.00,,-RA,0.00,51.00,VWS V14.01,2013-08-06 23:35:00,
2013-08-06 19:36:00,69.6,54.7,30.04,SSE,155,0.0,0.0,59,0.00,,OVC085,0.00,25.00,VWS V14.01,2013-08-06 23:36:00,
2013-08-06 19:40:00,71.3,50.0,30.03,SSW,192,0.0,6.0,47,0.00,,-RA,0.00,44.00,VWS V14.01,2013-08-06 23:40:00,
2013-08-06 19:41:00,69.6,55.1,30.04,SSE,155,0.0,0.0,60,0.00,,OVC085,0.00,16.00,VWS V14.01,2013-08-06 23:41:00,
2013-08-06 19:45:00,71.1,51.0,30.04,SE,143,0.0,2.0,49,0.00,,-RA,0.00,44.00,VWS V14.01,2013-08-06 23:45:00,
2013-08-06 19:46:00,69.4,55.4,30.04,SSE,154,0.0,2.0,61,0.00,,OVC085,0.00,12.00,VWS V14.01,2013-08-06 23:46:00,
2013-08-06 19:50:00,70.9,51.3,30.04,SE,137,0.0,0.0,50,0.00,,-RA,0.00,46.00,VWS V14.01,2013-08-06 23:50:00,
2013-08-06 19:51:00,69.1,55.5,30.04,WSW,239,0.0,5.0,62,0.00,,OVC085,0.00,11.00,VWS V14.01,2013-08-06 23:51:00,
2013-08-06 19:55:00,70.8,51.8,30.04,SSE,161,0.0,0.0,51,0.00,,-RA,0.00,46.00,VWS V14.01,2013-08-06 23:55:00,
2013-08-06 19:56:00,68.9,55.4,30.04,SW,229,2.0,5.0,62,0.00,,OVC085,0.00,5.00,VWS V14.01,2013-08-06 23:56:00,
2013-08-06 20:00:00,70.6,52.7,30.04,South,179,3.0,5.0,53,0.00,,-RA,0.00,44.00,VWS V14.01,2013-08-07 00:00:00,
2013-08-06 20:01:00,68.8,55.3,30.04,SSE,160,0.0,3.0,62,0.00,,OVC090,0.00,0.00,VWS V14.01,2013-08-07 00:01:00,
2013-08-06 20:05:00,70.4,53.0,30.04,SSE,162,0.0,3.0,54,0.00,,-RA,0.00,48.00,VWS V14.01,2013-08-07 00:05:00,
2013-08-06 20:06:00,68.6,55.1,30.04,SSW,198,0.0,2.0,62,0.00,,OVC090,0.00,0.00,VWS V14.01,2013-08-07 00:06:00,
2013-08-06 20:10:00,70.3,53.4,30.04,SSE,162,0.0,0.0,55,0.00,,-RA,0.00,49.00,VWS V14.01,2013-08-07 00:10:00,
2013-08-06 20:11:00,68.6,55.5,30.04,WSW,251,0.0,2.0,63,0.00,,OVC090,0.00,0.00,VWS V14.01,2013-08-07 00:11:00,
2013-08-06 20:15:00,70.3,53.9,30.04,SSE,158,0.0,2.0,56,0.00,,-RA,0.00,39.00,VWS V14.01,2013-08-07 00:15:00,
2013-08-06 20:16:00,68.4,55.3,30.04,SSW,209,0.0,0.0,63,0.00,,OVC090,0.00,0.00,VWS V14.01,2013-08-07 00:16:00,
2013-08-06 20:20:00,70.1,53.7,30.04,SSE,164,0.0,6.0,56,0.00,,-RA,0.00,35.00,VWS V14.01,2013-08-07 00:20:00,
2013-08-06 20:21:00,68.4,55.3,30.04,SSE,157,0.0,2.0,63,0.00,,OVC090,0.00,0.00,VWS V14.01,2013-08-07 00:21:00,
2013-08-06 20:25:00,69.9,54.0,30.04,South,171,0.0,5.0,57,0.00,,-RA,0.00,35.00,VWS V14.01,2013-08-07 00:25:00,
2013-08-06 20:26:00,68.3,55.7,30.04,SSE,152,0.0,2.0,64,0.00,,OVC090,0.00,0.00,VWS V14.01,2013-08-07 00:26:00,
2013-08-06 20:30:00,69.8,54.4,30.04,SSE,151,0.0,6.0,58,0.00,,-RA,0.00,33.00,VWS V14.01,2013-08-07 00:30:00,
2013-08-06 20:31:00,68.1,55.5,30.04,SSE,165,0.0,0.0,64,0.00,,OVC090,0.00,0.00,VWS V14.01,2013-08-07 00:31:00,
2013-08-06 20:35:00,69.8,54.8,30.04,SSE,155,0.0,2.0,59,0.00,,-RA,0.00,25.00,VWS V14.01,2013-08-07 00:35:00,
2013-08-06 20:36:00,67.9,55.7,30.04,SSE,165,0.0,0.0,65,0.00,,OVC090,0.00,0.00,VWS V14.01,2013-08-07 00:36:00,
2013-08-06 20:40:00,69.6,55.1,30.04,SSE,155,0.0,0.0,60,0.00,,-RA,0.00,18.00,VWS V14.01,2013-08-07 00:40:00,
2013-08-06 20:41:00,67.8,55.6,30.04,SSE,165,0.0,0.0,65,0.00,,OVC090,0.00,0.00,VWS V14.01,2013-08-07 00:41:00,
2013-08-06 20:45:00,69.4,54.9,30.04,SE,131,0.0,0.0,60,0.00,,-RA,0.00,16.00,VWS V14.01,2013-08-07 00:45:00,
2013-08-06 20:46:00,67.6,55.8,30.04,SSE,165,0.0,0.0,66,0.00,,OVC090,0.00,0.00,VWS V14.01,2013-08-07 00:46:00,
2013-08-06 20:50:00,69.3,55.3,30.04,WSW,239,1.0,5.0,61,0.00,,-RA,0.00,11.00,VWS V14.01,2013-08-07 00:50:00,
2013-08-06 20:51:00,67.4,55.7,30.04,SSE,165,0.0,0.0,66,0.00,,OVC090,0.00,0.00,VWS V14.01,2013-08-07 00:51:00,
2013-08-06 20:55:00,69.1,55.5,30.04,SE,137,1.0,7.0,62,0.00,,-RA,0.00,5.00,VWS V14.01,2013-08-07 00:55:00,
2013-08-06 20:56:00,67.3,55.6,30.04,SSE,165,0.0,0.0,66,0.00,,OVC090,0.00,0.00,VWS V14.01,2013-08-07 00:56:00,
2013-08-06 21:00:00,68.8,55.3,30.04,SSE,165,0.0,7.0,62,0.00,,-RA,0.00,0.00,VWS V14.01,2013-08-07 01:00:00,
2013-08-06 21:01:00,67.1,55.8,30.04,SSE,165,0.0,0.0,67,0.00,,OVC080,0.00,0.00,VWS V14.01,2013-08-07 01:01:00,
2013-08-06 21:05:00,68.8,55.3,30.04,South,186,0.0,4.0,62,0.00,,-RA,0.00,0.00,VWS V14.01,2013-08-07 01:05:00,
2013-08-06 21:06:00,66.9,55.6,30.04,SSE,165,0.0,0.0,67,0.00,,OVC080,0.00,0.00,VWS V14.01,2013-08-07 01:06:00,
2013-08-06 21:10:00,68.6,55.5,30.04,WSW,251,2.0,2.0,63,0.00,,-RA,0.00,0.00,VWS V14.01,2013-08-07 01:10:00,
2013-08-06 21:11:00,66.8,55.5,30.04,SSE,165,0.0,0.0,67,0.00,,OVC080,0.00,0.00,VWS V14.01,2013-08-07 01:11:00,
2013-08-06 21:15:00,68.4,55.3,30.04,SW,233,0.0,2.0,63,0.00,,-RA,0.00,0.00,VWS V14.01,2013-08-07 01:15:00,
2013-08-06 21:16:00,66.6,55.7,30.05,SSE,165,0.0,0.0,68,0.00,,OVC080,0.00,0.00,VWS V14.01,2013-08-07 01:16:00,
2013-08-06 21:20:00,68.4,55.3,30.04,SSE,148,0.0,0.0,63,0.00,,-RA,0.00,0.00,VWS V14.01,2013-08-07 01:20:00,
2013-08-06 21:21:00,66.4,55.5,30.05,SSE,165,0.0,0.0,68,0.00,,OVC080,0.00,0.00,VWS V14.01,2013-08-07 01:21:00,
2013-08-06 21:25:00,68.3,55.7,30.04,SSE,157,0.0,0.0,64,0.00,,-RA,0.00,0.00,VWS V14.01,2013-08-07 01:25:00,
2013-08-06 21:26:00,66.1,55.7,30.05,SSE,165,0.0,0.0,69,0.00,,OVC080,0.00,0.00,VWS V14.01,2013-08-07 01:26:00,
2013-08-06 21:30:00,68.1,55.5,30.04,SSE,165,0.0,2.0,64,0.00,,-RA,0.00,0.00,VWS V14.01,2013-08-07 01:30:00,
2013-08-06 21:31:00,66.0,55.5,30.05,SSE,165,0.0,0.0,69,0.00,,OVC080,0.00,0.00,VWS V14.01,2013-08-07 01:31:00,
2013-08-06 21:35:00,68.1,55.5,30.04,SSE,165,0.0,0.0,64,0.00,,-RA,0.00,0.00,VWS V14.01,2013-08-07 01:35:00,
2013-08-06 21:36:00,65.8,55.8,30.05,SSE,165,0.0,0.0,70,0.00,,OVC080,0.00,0.00,VWS V14.01,2013-08-07 01:36:00,
2013-08-06 21:40:00,67.8,55.6,30.04,SSE,158,0.0,0.0,65,0.00,,-RA,0.00,0.00,VWS V14.01,2013-08-07 01:40:00,
2013-08-06 21:41:00,65.6,56.0,30.05,SSE,165,0.0,0.0,71,0.00,,OVC080,0.00,0.00,VWS V14.01,2013-08-07 01:41:00,
2013-08-06 21:45:00,67.6,55.8,30.04,SSE,165,0.0,0.0,66,0.00,,-RA,0.00,0.00,VWS V14.01,2013-08-07 01:45:00,
2013-08-06 21:46:00,65.6,56.0,30.05,SSE,165,0.0,0.0,71,0.00,,OVC075,0.00,0.00,VWS V14.01,2013-08-07 01:46:00,
2013-08-06 21:50:00,67.4,55.7,30.04,SSE,165,0.0,0.0,66,0.00,,-RA,0.00,0.00,VWS V14.01,2013-08-07 01:50:00,
2013-08-06 21:51:00,65.6,56.3,30.05,SSE,165,0.0,0.0,72,0.00,,OVC075,0.00,0.00,VWS V14.01,2013-08-07 01:51:00,
2013-08-06 21:55:00,67.3,55.6,30.04,SSE,165,0.0,0.0,66,0.00,,-RA,0.00,0.00,VWS V14.01,2013-08-07 01:55:00,
2013-08-06 21:56:00,65.5,56.2,30.05,SSE,165,0.0,0.0,72,0.00,,OVC075,0.00,0.00,VWS V14.01,2013-08-07 01:56:00,
2013-08-06 22:00:00,67.1,55.8,30.04,SSE,165,0.0,0.0,67,0.00,,-RA,0.00,0.00,VWS V14.01,2013-08-07 02:00:00,
2013-08-06 22:01:00,65.5,56.2,30.06,SSE,165,0.0,0.0,72,0.00,,OVC080,0.00,0.00,VWS V14.01,2013-08-07 02:01:00,
2013-08-06 22:05:00,66.9,55.6,30.04,SSE,165,0.0,0.0,67,0.00,,-RA,0.00,0.00,VWS V14.01,2013-08-07 02:05:00,
2013-08-06 22:06:00,65.5,56.2,30.06,SSE,165,0.0,0.0,72,0.00,,OVC080,0.00,0.00,VWS V14.01,2013-08-07 02:06:00,
2013-08-06 22:10:00,66.8,55.5,30.04,SSE,165,0.0,0.0,67,0.00,,-RA,0.00,0.00,VWS V14.01,2013-08-07 02:10:00,
2013-08-06 22:11:00,65.6,56.3,30.06,SSE,165,0.0,0.0,72,0.00,,OVC080,0.00,0.00,VWS V14.01,2013-08-07 02:11:00,
2013-08-06 22:15:00,66.6,55.7,30.05,SSE,165,0.0,0.0,68,0.00,,-RA,0.00,0.00,VWS V14.01,2013-08-07 02:15:00,
2013-08-06 22:16:00,65.6,56.3,30.06,SSE,165,0.0,0.0,72,0.00,,OVC080,0.00,0.00,VWS V14.01,2013-08-07 02:16:00,
2013-08-06 22:20:00,66.4,55.5,30.05,SSE,165,0.0,0.0,68,0.00,,-RA,0.00,0.00,VWS V14.01,2013-08-07 02:20:00,
2013-08-06 22:21:00,65.5,56.2,30.06,SSE,165,0.0,0.0,72,0.00,,OVC080,0.00,0.00,VWS V14.01,2013-08-07 02:21:00,
2013-08-06 22:25:00,66.3,55.4,30.05,SSE,165,0.0,0.0,68,0.00,,-RA,0.00,0.00,VWS V14.01,2013-08-07 02:25:00,
2013-08-06 22:26:00,65.5,56.2,30.06,SSE,165,0.0,0.0,72,0.00,,OVC080,0.00,0.00,VWS V14.01,2013-08-07 02:26:00,
2013-08-06 22:30:00,66.0,55.5,30.05,SSE,158,0.0,0.0,69,0.00,,-RA,0.00,0.00,VWS V14.01,2013-08-07 02:30:00,
2013-08-06 22:31:00,65.3,56.0,30.06,SSE,165,0.0,0.0,72,0.00,,OVC080,0.00,0.00,VWS V14.01,2013-08-07 02:31:00,
2013-08-06 22:35:00,65.8,55.8,30.05,SSE,165,0.0,0.0,70,0.00,,-RA,0.00,0.00,VWS V14.01,2013-08-07 02:35:00,
2013-08-06 22:36:00,65.3,56.0,30.06,SSE,165,0.0,0.0,72,0.00,,OVC080,0.00,0.00,VWS V14.01,2013-08-07 02:36:00,
2013-08-06 22:40:00,65.6,56.0,30.05,SSE,165,0.0,0.0,71,0.00,,-RA,0.00,0.00,VWS V14.01,2013-08-07 02:40:00,
2013-08-06 22:41:00,65.3,56.4,30.06,SSE,165,0.0,0.0,73,0.00,,OVC080,0.00,0.00,VWS V14.01,2013-08-07 02:41:00,
2013-08-06 22:45:00,65.6,56.0,30.05,SSE,165,0.0,0.0,71,0.00,,-RA,0.00,0.00,VWS V14.01,2013-08-07 02:45:00,
2013-08-06 22:46:00,65.3,56.4,30.06,SSE,165,0.0,0.0,73,0.00,,OVC080,0.00,0.00,VWS V14.01,2013-08-07 02:46:00,
2013-08-06 22:50:00,65.6,56.3,30.05,SSE,165,0.0,0.0,72,0.00,,-RA,0.00,0.00,VWS V14.01,2013-08-07 02:50:00,
2013-08-06 22:51:00,65.3,56.4,30.06,SSE,165,0.0,0.0,73,0.00,,OVC080,0.00,0.00,VWS V14.01,2013-08-07 02:51:00,
2013-08-06 22:55:00,65.5,56.2,30.05,SSE,165,0.0,0.0,72,0.00,,-RA,0.00,0.00,VWS V14.01,2013-08-07 02:55:00,
2013-08-06 22:56:00,65.5,57.0,30.06,SSE,165,0.0,0.0,74,0.00,,OVC080,0.00,0.00,VWS V14.01,2013-08-07 02:56:00,
2013-08-06 23:00:00,65.5,56.2,30.06,SSE,165,0.0,0.0,72,0.00,,-RA,0.00,0.00,VWS V14.01,2013-08-07 03:00:00,
2013-08-06 23:01:00,65.5,57.0,30.06,SSE,165,0.0,0.0,74,0.00,,OVC085,0.00,0.00,VWS V14.01,2013-08-07 03:01:00,
2013-08-06 23:05:00,65.5,56.2,30.06,SSE,165,0.0,0.0,72,0.00,,-RA,0.00,0.00,VWS V14.01,2013-08-07 03:05:00,
2013-08-06 23:06:00,65.5,57.0,30.06,SSE,165,0.0,0.0,74,0.00,,OVC085,0.00,0.00,VWS V14.01,2013-08-07 03:06:00,
2013-08-06 23:10:00,65.6,56.3,30.06,SSE,165,0.0,0.0,72,0.00,,-RA,0.00,0.00,VWS V14.01,2013-08-07 03:10:00,
2013-08-06 23:11:00,65.5,57.0,30.06,SSE,165,0.0,0.0,74,0.00,,OVC085,0.00,0.00,VWS V14.01,2013-08-07 03:11:00,
2013-08-06 23:15:00,65.6,56.3,30.06,SSE,165,0.0,0.0,72,0.00,,-RA,0.00,0.00,VWS V14.01,2013-08-07 03:15:00,
2013-08-06 23:16:00,65.5,57.0,30.06,SSE,165,0.0,0.0,74,0.00,,OVC085,0.00,0.00,VWS V14.01,2013-08-07 03:16:00,
2013-08-06 23:20:00,65.5,56.2,30.06,SSE,165,0.0,0.0,72,0.00,,-RA,0.00,0.00,VWS V14.01,2013-08-07 03:20:00,
2013-08-06 23:21:00,65.5,57.0,30.06,SSE,165,0.0,0.0,74,0.00,,OVC085,0.00,0.00,VWS V14.01,2013-08-07 03:21:00,
2013-08-06 23:25:00,65.5,56.2,30.06,SSE,165,0.0,0.0,72,0.00,,-RA,0.00,0.00,VWS V14.01,2013-08-07 03:25:00,
2013-08-06 23:26:00,65.5,57.0,30.06,SSE,165,0.0,0.0,74,0.00,,OVC085,0.00,0.00,VWS V14.01,2013-08-07 03:26:00,
2013-08-06 23:30:00,65.3,56.0,30.06,SSE,165,0.0,0.0,72,0.00,,-RA,0.00,0.00,VWS V14.01,2013-08-07 03:30:00,
2013-08-06 23:31:00,65.5,57.0,30.05,SSE,165,0.0,0.0,74,0.00,,OVC085,0.00,0.00,VWS V14.01,2013-08-07 03:31:00,
2013-08-06 23:35:00,65.3,56.0,30.06,SSE,165,0.0,0.0,72,0.00,,-RA,0.00,0.00,VWS V14.01,2013-08-07 03:35:00,
2013-08-06 23:36:00,65.5,57.0,30.05,SSE,165,0.0,0.0,74,0.00,,OVC085,0.00,0.00,VWS V14.01,2013-08-07 03:36:00,
2013-08-06 23:40:00,65.2,56.3,30.06,SSE,165,0.0,0.0,73,0.00,,-RA,0.00,0.00,VWS V14.01,2013-08-07 03:40:00,
2013-08-06 23:41:00,65.5,57.0,30.05,SSE,165,0.0,0.0,74,0.00,,OVC085,0.00,0.00,VWS V14.01,2013-08-07 03:41:00,
2013-08-06 23:45:00,65.3,56.4,30.06,SSE,165,0.0,0.0,73,0.00,,-RA,0.00,0.00,VWS V14.01,2013-08-07 03:45:00,
2013-08-06 23:46:00,65.5,57.0,30.05,SSE,165,0.0,0.0,74,0.00,,OVC085,0.00,0.00,VWS V14.01,2013-08-07 03:46:00,
2013-08-06 23:50:00,65.3,56.4,30.06,SSE,165,0.0,0.0,73,0.00,,-RA,0.00,0.00,VWS V14.01,2013-08-07 03:50:00,
2013-08-06 23:51:00,65.3,56.8,30.05,SSE,165,0.0,0.0,74,0.00,,OVC085,0.00,0.00,VWS V14.01,2013-08-07 03:51:00,
2013-08-06 23:55:00,65.5,57.0,30.06,SSE,165,0.0,0.0,74,0.00,,-RA,0.00,0.00,VWS V14.01,2013-08-07 03:55:00,
2013-08-06 23:56:00,65.2,56.7,30.05,SSE,165,0.0,0.0,74,0.00,,OVC085,0.00,0.00,VWS V14.01,2013-08-07 03:56:00,